SV8FES-1 Weather Reports


time (UTC)temp
C
wind
direction
speed
KPH
gust
KPH
rain 1hr
cm
rain 24hr
cm
rain mn
cm
humidity
%
barometer
mb
20260507225916 18 0 0.0 0.0 0.00 0.00 0.00 54 1017.8
20260507225804 18 0 0.0 0.0 0.00 0.00 0.00 55 1017.8
20260507225716 18 0 0.0 0.0 0.00 0.00 0.00 55 1017.8
20260507225603 18 0 0.0 0.0 0.00 0.00 0.00 55 1017.8
20260507225517 18 0 0.0 0.0 0.00 0.00 0.00 55 1017.8
20260507225404 18 0 0.0 0.0 0.00 0.00 0.00 55 1017.8
20260507225317 18 0 0.0 6.4 0.00 0.00 0.00 55 1017.8
20260507225204 18 0 0.0 6.4 0.00 0.00 0.00 55 1017.8
20260507225118 18 0 0.0 6.4 0.00 0.00 0.00 55 1017.8
20260507225004 18 0 0.0 6.4 0.00 0.00 0.00 55 1017.9
20260507224917 18 0 0.0 6.4 0.00 0.00 0.00 55 1017.9
20260507224804 18 0 0.0 6.4 0.00 0.00 0.00 55 1017.9
20260507224717 18 0 0.0 6.4 0.00 0.00 0.00 55 1017.9
20260507224604 18 0 0.0 6.4 0.00 0.00 0.00 55 1017.9
20260507224517 18 0 0.0 6.4 0.00 0.00 0.00 55 1017.9
20260507224404 18 0 0.0 6.4 0.00 0.00 0.00 54 1017.9
20260507224317 18 0 0.0 6.4 0.00 0.00 0.00 54 1017.9
20260507224203 18 0 0.0 6.4 0.00 0.00 0.00 54 1017.9
20260507224117 18 0 0.0 6.4 0.00 0.00 0.00 54 1017.9
20260507224004 18 74 0.0 6.4 0.00 0.00 0.00 53 1017.9
20260507223917 18 74 0.0 3.2 0.00 0.00 0.00 53 1018.0
20260507223804 18 0 0.0 0.0 0.00 0.00 0.00 53 1018.0
20260507223716 18 0 1.6 0.0 0.00 0.00 0.00 53 1018.0
20260507223604 18 0 1.6 0.0 0.00 0.00 0.00 53 1018.1
20260507223517 18 0 1.6 0.0 0.00 0.00 0.00 53 1018.0
20260507223403 18 74 1.6 3.2 0.00 0.00 0.00 53 1018.0
20260507223317 18 74 1.6 3.2 0.00 0.00 0.00 53 1018.0
20260507223204 18 74 1.6 6.4 0.00 0.00 0.00 53 1018.0
20260507223117 18 74 1.6 9.7 0.00 0.00 0.00 53 1018.0
20260507223004 18 74 1.6 9.7 0.00 0.00 0.00 54 1017.9
20260507222917 18 74 3.2 9.7 0.00 0.00 0.00 53 1017.9
20260507222803 18 74 3.2 9.7 0.00 0.00 0.00 53 1017.9
20260507222717 18 74 3.2 9.7 0.00 0.00 0.00 53 1017.9
20260507222603 18 74 3.2 9.7 0.00 0.00 0.00 53 1017.9
20260507222516 18 74 3.2 9.7 0.00 0.00 0.00 53 1017.8
20260507222404 18 74 3.2 9.7 0.00 0.00 0.00 54 1017.8
20260507222317 18 75 3.2 9.7 0.00 0.00 0.00 53 1017.8
20260507222204 18 76 4.8 9.7 0.00 0.00 0.00 53 1017.9
20260507222117 18 76 4.8 9.7 0.00 0.00 0.00 52 1017.8
20260507222004 18 75 4.8 9.7 0.00 0.00 0.00 52 1017.9
20260507221917 18 75 3.2 9.7 0.00 0.00 0.00 52 1017.8
20260507221804 18 74 3.2 9.7 0.00 0.00 0.00 52 1017.9
20260507221718 18 74 3.2 9.7 0.00 0.00 0.00 51 1017.9
20260507221604 18 74 3.2 9.7 0.00 0.00 0.00 51 1017.9
20260507221517 18 74 3.2 9.7 0.00 0.00 0.00 51 1017.9
20260507221404 18 74 1.6 9.7 0.00 0.00 0.00 51 1017.9
20260507221317 18 73 1.6 9.7 0.00 0.00 0.00 51 1017.9
20260507221204 18 72 1.6 9.7 0.00 0.00 0.00 51 1017.9
20260507221117 18 72 1.6 9.7 0.00 0.00 0.00 51 1017.9
20260507221004 18 72 0.0 9.7 0.00 0.00 0.00 52 1017.9
20260507220917 18 72 0.0 9.7 0.00 0.00 0.00 52 1017.9
20260507220803 18 72 0.0 9.7 0.00 0.00 0.00 52 1017.9
20260507220717 18 0 0.0 9.7 0.00 0.00 0.00 52 1017.9
20260507220603 18 0 0.0 6.4 0.00 0.00 0.00 52 1018.0
20260507220517 18 0 0.0 6.4 0.00 0.00 0.00 52 1017.9
20260507220404 18 0 0.0 6.4 0.00 0.00 0.00 52 1018.0
20260507220316 18 0 0.0 6.4 0.00 0.00 0.00 53 1018.0
20260507220203 18 0 0.0 6.4 0.00 0.00 0.00 53 1017.9
20260507220117 18 0 0.0 6.4 0.00 0.00 0.00 53 1018.0
20260507220004 18 0 0.0 6.4 0.00 0.00 0.00 53 1017.9
20260507215917 18 73 0.0 6.4 0.00 0.00 0.00 53 1017.9
20260507215804 18 73 0.0 6.4 0.00 0.00 0.00 53 1018.0
20260507215717 18 73 0.0 6.4 0.00 0.00 0.00 52 1018.0
20260507215604 18 73 1.6 6.4 0.00 0.00 0.00 53 1018.0
20260507215518 18 73 1.6 6.4 0.00 0.00 0.00 53 1017.9
20260507215404 18 73 1.6 9.7 0.00 0.00 0.00 53 1017.9
20260507215318 18 73 1.6 9.7 0.00 0.00 0.00 53 1017.9
20260507215204 18 73 1.6 9.7 0.00 0.00 0.00 53 1017.9
20260507215117 18 73 1.6 9.7 0.00 0.00 0.00 53 1017.9
20260507215004 18 73 1.6 9.7 0.00 0.00 0.00 52 1018.0
20260507214916 18 73 1.6 9.7 0.00 0.00 0.00 52 1018.0
20260507214804 18 73 1.6 9.7 0.00 0.00 0.00 52 1017.9
20260507214717 18 73 1.6 9.7 0.00 0.00 0.00 52 1017.9
20260507214604 18 74 1.6 9.7 0.00 0.00 0.00 52 1018.0
20260507214516 18 74 1.6 9.7 0.00 0.00 0.00 52 1018.0
20260507214404 18 74 1.6 9.7 0.00 0.00 0.00 52 1018.0
20260507214317 18 74 1.6 9.7 0.00 0.00 0.00 52 1017.9
20260507214204 18 74 1.6 9.7 0.00 0.00 0.00 52 1017.9
20260507214117 18 75 1.6 9.7 0.00 0.00 0.00 52 1018.0
20260507214004 18 75 0.0 9.7 0.00 0.00 0.00 52 1018.0
20260507213917 18 75 0.0 9.7 0.00 0.00 0.00 52 1018.0
20260507213804 18 76 0.0 9.7 0.00 0.00 0.00 52 1018.0
20260507213717 18 0 0.0 9.7 0.00 0.00 0.00 52 1018.0
20260507213604 18 0 0.0 6.4 0.00 0.00 0.00 52 1018.0
20260507213517 18 77 0.0 6.4 0.00 0.00 0.00 52 1018.0
20260507213403 19 77 0.0 3.2 0.00 0.00 0.00 51 1018.1
20260507213316 19 77 0.0 3.2 0.00 0.00 0.00 51 1018.1
20260507213204 19 77 1.6 3.2 0.00 0.00 0.00 51 1018.1
20260507213117 19 77 1.6 3.2 0.00 0.00 0.00 51 1018.2
20260507213003 19 77 1.6 3.2 0.00 0.00 0.00 51 1018.2
20260507212916 19 77 1.6 3.2 0.00 0.00 0.00 51 1018.2
20260507212804 19 77 3.2 3.2 0.00 0.00 0.00 51 1018.2
20260507212717 19 77 3.2 3.2 0.00 0.00 0.00 51 1018.2
20260507212604 19 77 3.2 6.4 0.00 0.00 0.00 50 1018.3
20260507212516 19 77 3.2 6.4 0.00 0.00 0.00 50 1018.3
20260507212403 19 76 3.2 9.7 0.00 0.00 0.00 50 1018.2
20260507212318 19 75 3.2 9.7 0.00 0.00 0.00 50 1018.2
20260507212203 19 75 3.2 9.7 0.00 0.00 0.00 50 1018.2
20260507212117 19 75 3.2 9.7 0.00 0.00 0.00 50 1018.2
20260507212004 19 75 3.2 9.7 0.00 0.00 0.00 50 1018.1
20260507211917 19 75 3.2 9.7 0.00 0.00 0.00 50 1018.1
20260507211804 19 75 3.2 9.7 0.00 0.00 0.00 50 1018.1
20260507211717 19 75 3.2 9.7 0.00 0.00 0.00 49 1018.0
20260507211604 19 75 3.2 9.7 0.00 0.00 0.00 49 1018.0
20260507211517 19 75 3.2 9.7 0.00 0.00 0.00 49 1017.9
20260507211404 19 75 1.6 9.7 0.00 0.00 0.00 48 1017.9
20260507211317 19 75 1.6 9.7 0.00 0.00 0.00 48 1017.9
20260507211204 19 75 1.6 9.7 0.00 0.00 0.00 48 1017.9
20260507211117 19 75 1.6 9.7 0.00 0.00 0.00 48 1017.8
20260507211004 19 74 1.6 9.7 0.00 0.00 0.00 48 1017.9
20260507210917 19 74 1.6 9.7 0.00 0.00 0.00 48 1017.8
20260507210803 19 74 1.6 9.7 0.00 0.00 0.00 48 1017.8
20260507210704 19 75 1.6 9.7 0.00 0.00 0.00 47 1017.9
20260507210616 19 75 1.6 9.7 0.00 0.00 0.00 47 1017.8
20260507210504 19 75 1.6 9.7 0.00 0.00 0.00 47 1017.9
20260507210417 19 75 1.6 9.7 0.00 0.00 0.00 46 1017.9
20260507210304 19 75 1.6 9.7 0.00 0.00 0.00 46 1017.9
20260507210204 19 75 0.0 9.7 0.00 0.00 0.00 46 1017.9
20260507210117 19 75 0.0 9.7 0.00 0.00 0.00 46 1017.9
20260507210010 19 75 0.0 9.7 0.00 0.00 0.00 46 1017.9
20260507205916 19 0 0.0 9.7 0.00 0.00 0.00 46 1018.0
20260507205804 19 75 0.0 9.7 0.00 0.00 0.00 46 1017.9
20260507205716 19 75 0.0 6.4 0.00 0.00 0.00 47 1017.9
20260507205604 19 0 0.0 0.0 0.00 0.00 0.00 47 1017.9
20260507205517 19 0 1.6 0.0 0.00 0.00 0.00 47 1017.9
20260507205404 19 0 1.6 0.0 0.00 0.00 0.00 46 1018.0
20260507205316 19 0 1.6 0.0 0.00 0.00 0.00 46 1018.0
20260507205204 19 0 1.6 0.0 0.00 0.00 0.00 46 1018.0
20260507205116 19 0 1.6 0.0 0.00 0.00 0.00 46 1017.9
20260507205004 19 75 1.6 9.7 0.00 0.00 0.00 46 1018.0
20260507204916 19 75 1.6 9.7 0.00 0.00 0.00 46 1018.0
20260507204804 19 75 1.6 9.7 0.00 0.00 0.00 46 1018.0
20260507204717 19 76 1.6 9.7 0.00 0.00 0.00 46 1018.0
20260507204604 20 76 1.6 9.7 0.00 0.00 0.00 45 1018.0
20260507204517 20 76 1.6 9.7 0.00 0.00 0.00 45 1018.0
20260507204404 20 76 3.2 9.7 0.00 0.00 0.00 44 1018.0
20260507204317 20 76 3.2 9.7 0.00 0.00 0.00 43 1018.0
20260507204204 20 76 3.2 9.7 0.00 0.00 0.00 41 1018.0
20260507204116 20 76 3.2 9.7 0.00 0.00 0.00 41 1017.9
20260507204004 20 76 3.2 9.7 0.00 0.00 0.00 41 1017.9
20260507203916 20 76 4.8 9.7 0.00 0.00 0.00 41 1017.9
20260507203804 20 76 4.8 9.7 0.00 0.00 0.00 41 1017.9
20260507203717 20 75 4.8 9.7 0.00 0.00 0.00 42 1017.8
20260507203604 20 75 6.4 9.7 0.00 0.00 0.00 42 1017.8
20260507203516 20 74 6.4 11.3 0.00 0.00 0.00 42 1017.8
20260507203404 20 73 6.4 11.3 0.00 0.00 0.00 42 1017.7
20260507203317 20 73 6.4 11.3 0.00 0.00 0.00 42 1017.8
20260507203204 20 72 6.4 11.3 0.00 0.00 0.00 43 1017.8
20260507203116 20 72 6.4 11.3 0.00 0.00 0.00 43 1017.8
20260507203004 20 73 6.4 11.3 0.00 0.00 0.00 43 1017.9
20260507202916 20 73 6.4 11.3 0.00 0.00 0.00 44 1017.9
20260507202804 20 74 6.4 11.3 0.00 0.00 0.00 43 1017.9
20260507202717 20 73 6.4 11.3 0.00 0.00 0.00 43 1017.8
20260507202603 20 73 6.4 11.3 0.00 0.00 0.00 43 1017.8
20260507202517 20 73 6.4 11.3 0.00 0.00 0.00 43 1017.7
20260507202403 20 74 6.4 14.5 0.00 0.00 0.00 43 1017.8
20260507202317 20 75 6.4 14.5 0.00 0.00 0.00 43 1017.8
20260507202203 20 75 6.4 17.7 0.00 0.00 0.00 42 1017.7
20260507202117 20 75 6.4 17.7 0.00 0.00 0.00 42 1017.7
20260507202004 20 75 6.4 17.7 0.00 0.00 0.00 43 1017.7
20260507201916 20 75 6.4 17.7 0.00 0.00 0.00 43 1017.7
20260507201804 20 76 6.4 17.7 0.00 0.00 0.00 44 1017.7
20260507201717 20 77 6.4 17.7 0.00 0.00 0.00 45 1017.7
20260507201604 20 78 6.4 17.7 0.00 0.00 0.00 45 1017.7
20260507201517 20 78 6.4 17.7 0.00 0.00 0.00 45 1017.7
20260507201404 20 79 6.4 17.7 0.00 0.00 0.00 44 1017.7
20260507201317 20 79 6.4 17.7 0.00 0.00 0.00 44 1017.6
20260507201204 20 79 6.4 17.7 0.00 0.00 0.00 43 1017.6
20260507201117 20 80 6.4 17.7 0.00 0.00 0.00 43 1017.6
20260507201004 20 80 6.4 17.7 0.00 0.00 0.00 43 1017.6
20260507200916 20 80 6.4 17.7 0.00 0.00 0.00 43 1017.6
20260507200804 20 80 6.4 17.7 0.00 0.00 0.00 41 1017.6
20260507200717 20 79 6.4 17.7 0.00 0.00 0.00 41 1017.6
20260507200604 19 78 4.8 17.7 0.00 0.00 0.00 41 1017.6
20260507200517 19 78 4.8 17.7 0.00 0.00 0.00 42 1017.6
20260507200404 19 77 4.8 17.7 0.00 0.00 0.00 42 1017.6
20260507200317 19 77 4.8 17.7 0.00 0.00 0.00 43 1017.6
20260507200204 19 76 4.8 11.3 0.00 0.00 0.00 43 1017.6
20260507200117 19 76 4.8 11.3 0.00 0.00 0.00 43 1017.6
20260507200004 19 75 4.8 11.3 0.00 0.00 0.00 44 1017.6
20260507195916 19 75 4.8 9.7 0.00 0.00 0.00 43 1017.6
20260507195803 19 74 4.8 9.7 0.00 0.00 0.00 43 1017.7
20260507195717 19 73 4.8 9.7 0.00 0.00 0.00 44 1017.7
20260507195604 19 74 4.8 9.7 0.00 0.00 0.00 44 1017.7
20260507195517 19 74 4.8 9.7 0.00 0.00 0.00 44 1017.8
20260507195404 19 74 4.8 9.7 0.00 0.00 0.00 44 1017.8
20260507195317 19 74 4.8 9.7 0.00 0.00 0.00 44 1017.8
20260507195204 19 74 4.8 9.7 0.00 0.00 0.00 44 1017.8
20260507195118 19 74 4.8 9.7 0.00 0.00 0.00 44 1017.8
20260507195003 19 74 4.8 9.7 0.00 0.00 0.00 44 1017.9
20260507194917 19 75 4.8 9.7 0.00 0.00 0.00 44 1017.8
20260507194803 19 75 4.8 9.7 0.00 0.00 0.00 44 1017.9
20260507194717 19 75 4.8 9.7 0.00 0.00 0.00 44 1017.9
20260507194603 19 75 4.8 9.7 0.00 0.00 0.00 44 1017.9
20260507194517 19 76 3.2 9.7 0.00 0.00 0.00 44 1017.9
20260507194404 19 76 3.2 9.7 0.00 0.00 0.00 45 1017.9
20260507194316 19 77 3.2 9.7 0.00 0.00 0.00 45 1017.9
20260507194204 19 77 3.2 9.7 0.00 0.00 0.00 45 1017.9
20260507194117 19 78 3.2 9.7 0.00 0.00 0.00 45 1017.8
20260507194003 19 78 1.6 9.7 0.00 0.00 0.00 45 1017.9
20260507193917 19 79 1.6 9.7 0.00 0.00 0.00 44 1017.8
20260507193804 19 79 1.6 9.7 0.00 0.00 0.00 44 1017.9
20260507193717 19 79 1.6 9.7 0.00 0.00 0.00 44 1017.8
20260507193604 19 79 1.6 9.7 0.00 0.00 0.00 44 1017.9
20260507193517 19 79 1.6 9.7 0.00 0.00 0.00 44 1017.8
20260507193403 19 80 1.6 9.7 0.00 0.00 0.00 44 1017.8
20260507193317 19 80 1.6 6.4 0.00 0.00 0.00 45 1017.8
20260507193203 19 80 1.6 6.4 0.00 0.00 0.00 45 1017.9
20260507193117 19 80 1.6 6.4 0.00 0.00 0.00 45 1017.8
20260507193004 19 80 3.2 6.4 0.00 0.00 0.00 45 1017.8
20260507192917 19 80 3.2 6.4 0.00 0.00 0.00 45 1017.9
20260507192804 19 80 4.8 6.4 0.00 0.00 0.00 45 1017.8
20260507192717 19 80 4.8 9.7 0.00 0.00 0.00 45 1017.9
20260507192604 19 80 4.8 9.7 0.00 0.00 0.00 45 1017.8
20260507192517 19 80 6.4 9.7 0.00 0.00 0.00 46 1017.8
20260507192404 19 80 6.4 9.7 0.00 0.00 0.00 46 1017.8
20260507192316 19 80 6.4 9.7 0.00 0.00 0.00 46 1017.8
20260507192204 19 81 6.4 9.7 0.00 0.00 0.00 46 1017.9
20260507192116 19 82 6.4 9.7 0.00 0.00 0.00 46 1017.8
20260507192004 19 82 6.4 11.3 0.00 0.00 0.00 46 1017.8
20260507191916 19 82 6.4 11.3 0.00 0.00 0.00 46 1017.8
20260507191804 19 82 6.4 20.9 0.00 0.00 0.00 47 1017.8
20260507191717 19 82 6.4 20.9 0.00 0.00 0.00 47 1017.9
20260507191604 19 81 6.4 20.9 0.00 0.00 0.00 47 1017.9
20260507191517 19 81 6.4 20.9 0.00 0.00 0.00 48 1017.9
20260507191404 19 80 6.4 20.9 0.00 0.00 0.00 49 1017.9
20260507191316 19 80 6.4 20.9 0.00 0.00 0.00 49 1017.9
20260507191204 19 80 6.4 20.9 0.00 0.00 0.00 50 1017.9
20260507191117 19 79 6.4 20.9 0.00 0.00 0.00 50 1017.9
20260507191003 19 79 6.4 20.9 0.00 0.00 0.00 50 1017.9
20260507190917 19 78 6.4 20.9 0.00 0.00 0.00 50 1017.9
20260507190804 19 77 6.4 20.9 0.00 0.00 0.00 49 1018.0
20260507190716 19 77 6.4 20.9 0.00 0.00 0.00 48 1017.9
20260507190604 19 77 6.4 17.7 0.00 0.00 0.00 48 1017.9
20260507190517 19 77 6.4 17.7 0.00 0.00 0.00 47 1017.9
20260507190404 19 77 6.4 17.7 0.00 0.00 0.00 46 1017.9
20260507190317 19 77 6.4 17.7 0.00 0.00 0.00 47 1017.9
20260507190204 19 76 6.4 17.7 0.00 0.00 0.00 47 1017.9
20260507190116 19 76 4.8 17.7 0.00 0.00 0.00 48 1018.0
20260507190005 19 76 4.8 17.7 0.00 0.00 0.00 48 1018.0
20260507185917 19 76 4.8 17.7 0.00 0.00 0.00 49 1018.1
20260507185804 19 76 4.8 17.7 0.00 0.00 0.00 49 1018.1
20260507185717 19 75 4.8 11.3 0.00 0.00 0.00 49 1018.1
20260507185604 19 75 4.8 11.3 0.00 0.00 0.00 49 1018.1
20260507185517 19 75 4.8 11.3 0.00 0.00 0.00 49 1018.1
20260507185404 19 75 4.8 11.3 0.00 0.00 0.00 49 1018.1
20260507185317 19 74 4.8 11.3 0.00 0.00 0.00 49 1018.1
20260507185204 19 74 4.8 11.3 0.00 0.00 0.00 49 1018.1
20260507185116 19 73 4.8 11.3 0.00 0.00 0.00 49 1018.1
20260507185004 19 72 4.8 11.3 0.00 0.00 0.00 49 1018.1
20260507184917 19 71 4.8 11.3 0.00 0.00 0.00 49 1018.1
20260507184803 19 70 4.8 11.3 0.00 0.00 0.00 49 1018.1
20260507184717 19 69 4.8 11.3 0.00 0.00 0.00 49 1018.1
20260507184604 19 69 4.8 11.3 0.00 0.00 0.00 49 1018.1
20260507184517 19 67 4.8 11.3 0.00 0.00 0.00 49 1018.0
20260507184405 19 67 4.8 11.3 0.00 0.00 0.00 48 1018.1
20260507184317 19 68 6.4 11.3 0.00 0.00 0.00 48 1018.0
20260507184204 19 68 6.4 11.3 0.00 0.00 0.00 48 1018.0
20260507184117 19 68 6.4 9.7 0.00 0.00 0.00 48 1018.0
20260507184003 19 69 6.4 9.7 0.00 0.00 0.00 48 1017.9
20260507183917 19 70 6.4 9.7 0.00 0.00 0.00 48 1018.0
20260507183803 19 71 6.4 11.3 0.00 0.00 0.00 49 1018.0
20260507183717 19 73 6.4 11.3 0.00 0.00 0.00 49 1018.0
20260507183604 19 74 6.4 11.3 0.00 0.00 0.00 50 1018.0
20260507183516 19 77 6.4 17.7 0.00 0.00 0.00 50 1017.9
20260507183404 19 78 6.4 17.7 0.00 0.00 0.00 50 1018.0
20260507183316 19 78 4.8 17.7 0.00 0.00 0.00 50 1018.0
20260507183204 19 77 4.8 17.7 0.00 0.00 0.00 50 1018.0
20260507183117 19 77 4.8 17.7 0.00 0.00 0.00 50 1017.9
20260507183003 19 76 3.2 17.7 0.00 0.00 0.00 50 1018.0
20260507182917 19 76 3.2 17.7 0.00 0.00 0.00 50 1018.0
20260507182804 19 76 3.2 17.7 0.00 0.00 0.00 50 1018.0
20260507182717 19 76 3.2 17.7 0.00 0.00 0.00 50 1017.9
20260507182604 19 75 3.2 17.7 0.00 0.00 0.00 50 1017.9
20260507182517 20 73 3.2 17.7 0.00 0.00 0.00 50 1017.9
20260507182404 19 69 3.2 9.7 0.00 0.00 0.00 49 1017.9
20260507182317 20 67 3.2 11.3 0.00 0.00 0.00 50 1017.9
20260507182204 20 66 3.2 11.3 0.00 0.00 0.00 50 1017.9
20260507182117 20 68 3.2 11.3 0.00 0.00 0.00 51 1017.9
20260507182004 20 69 3.2 11.3 0.00 0.00 0.00 51 1017.8
20260507181917 20 70 3.2 11.3 0.00 0.00 0.00 51 1017.7
20260507181804 20 70 1.6 11.3 0.00 0.00 0.00 51 1017.7
20260507181717 20 70 1.6 11.3 0.00 0.00 0.00 51 1017.8
20260507181604 20 70 1.6 11.3 0.00 0.00 0.00 51 1017.9
20260507181517 20 71 1.6 11.3 0.00 0.00 0.00 51 1017.9
20260507181404 20 72 1.6 11.3 0.00 0.00 0.00 51 1017.9
20260507181318 20 73 1.6 9.7 0.00 0.00 0.00 51 1017.9
20260507181204 20 74 1.6 9.7 0.00 0.00 0.00 51 1017.9
20260507181117 20 74 1.6 9.7 0.00 0.00 0.00 50 1017.8
20260507181004 20 75 1.6 9.7 0.00 0.00 0.00 50 1017.8
20260507180917 20 74 1.6 9.7 0.00 0.00 0.00 50 1017.9
20260507180804 20 73 1.6 6.4 0.00 0.00 0.00 50 1017.9
20260507180716 20 73 1.6 6.4 0.00 0.00 0.00 50 1017.9
20260507180604 20 73 1.6 6.4 0.00 0.00 0.00 50 1017.9
20260507180517 20 73 1.6 6.4 0.00 0.00 0.00 50 1017.9
20260507180405 20 72 1.6 6.4 0.00 0.00 0.00 50 1017.9
20260507180317 20 72 1.6 6.4 0.00 0.00 0.00 50 1017.9
20260507180204 20 72 1.6 6.4 0.00 0.00 0.00 50 1018.0
20260507180117 20 72 1.6 6.4 0.00 0.00 0.00 50 1017.9
20260507180004 20 72 1.6 6.4 0.00 0.00 0.00 50 1017.9
20260507175917 20 72 1.6 6.4 0.00 0.00 0.00 50 1018.0
20260507175804 20 72 1.6 6.4 0.00 0.00 0.00 50 1017.9
20260507175717 20 72 3.2 6.4 0.00 0.00 0.00 50 1017.9
20260507175604 20 72 3.2 6.4 0.00 0.00 0.00 50 1017.9
20260507175517 20 73 3.2 6.4 0.00 0.00 0.00 50 1017.9
20260507175404 20 72 3.2 6.4 0.00 0.00 0.00 50 1017.9
20260507175317 20 73 3.2 6.4 0.00 0.00 0.00 50 1017.9
20260507175204 20 73 3.2 6.4 0.00 0.00 0.00 49 1017.8
20260507175117 20 73 3.2 6.4 0.00 0.00 0.00 49 1017.8
20260507175003 20 73 4.8 9.7 0.00 0.00 0.00 49 1017.8
20260507174917 20 73 4.8 9.7 0.00 0.00 0.00 49 1017.8
20260507174803 20 72 4.8 9.7 0.00 0.00 0.00 49 1017.8
20260507174717 20 71 4.8 9.7 0.00 0.00 0.00 49 1017.8
20260507174604 20 69 4.8 9.7 0.00 0.00 0.00 49 1017.8
20260507174516 20 68 3.2 9.7 0.00 0.00 0.00 49 1017.9
20260507174404 20 67 3.2 9.7 0.00 0.00 0.00 49 1017.9
20260507174316 20 65 3.2 9.7 0.00 0.00 0.00 49 1017.8
20260507174204 20 64 3.2 9.7 0.00 0.00 0.00 49 1017.9
20260507174117 20 63 3.2 9.7 0.00 0.00 0.00 49 1017.8
20260507174004 20 62 1.6 9.7 0.00 0.00 0.00 49 1017.8
20260507173917 20 61 1.6 9.7 0.00 0.00 0.00 49 1017.7
20260507173804 20 58 1.6 9.7 0.00 0.00 0.00 49 1017.8
20260507173716 20 57 1.6 9.7 0.00 0.00 0.00 49 1017.7
20260507173604 20 56 1.6 9.7 0.00 0.00 0.00 49 1017.7
20260507173516 20 55 1.6 9.7 0.00 0.00 0.00 49 1017.7
20260507173404 20 54 1.6 9.7 0.00 0.00 0.00 49 1017.8
20260507173316 20 52 1.6 9.7 0.00 0.00 0.00 49 1017.8
20260507173204 20 52 1.6 9.7 0.00 0.00 0.00 48 1017.8
20260507173117 20 52 1.6 9.7 0.00 0.00 0.00 48 1017.7
20260507173004 20 52 1.6 9.7 0.00 0.00 0.00 48 1017.7
20260507172917 21 52 1.6 9.7 0.00 0.00 0.00 48 1017.7
20260507172803 21 37 1.6 6.4 0.00 0.00 0.00 48 1017.7
20260507172717 21 25 1.6 6.4 0.00 0.00 0.00 48 1017.8
20260507172604 21 9 1.6 6.4 0.00 0.00 0.00 48 1017.8
20260507172516 21 3 1.6 6.4 0.00 0.00 0.00 48 1017.8
20260507172404 21 359 1.6 6.4 0.00 0.00 0.00 48 1017.8
20260507172316 21 357 1.6 6.4 0.00 0.00 0.00 48 1017.9
20260507172204 21 352 1.6 6.4 0.00 0.00 0.00 48 1017.9
20260507172117 21 345 1.6 6.4 0.00 0.00 0.00 47 1017.9
20260507172004 21 341 1.6 6.4 0.00 0.00 0.00 47 1017.9
20260507171916 21 339 0.0 6.4 0.00 0.00 0.00 47 1017.9
20260507171804 21 336 0.0 6.4 0.00 0.00 0.00 48 1017.9
20260507171717 21 334 0.0 6.4 0.00 0.00 0.00 48 1018.0
20260507171604 21 0 0.0 6.4 0.00 0.00 0.00 48 1018.0
20260507171517 21 0 0.0 6.4 0.00 0.00 0.00 48 1018.0
20260507171403 21 0 0.0 6.4 0.00 0.00 0.00 48 1018.0
20260507171317 21 0 0.0 6.4 0.00 0.00 0.00 48 1018.0
20260507171204 21 0 0.0 3.2 0.00 0.00 0.00 48 1018.0
20260507171117 21 0 0.0 3.2 0.00 0.00 0.00 48 1018.0
20260507171003 21 0 0.0 3.2 0.00 0.00 0.00 48 1018.0
20260507170917 21 0 0.0 3.2 0.00 0.00 0.00 48 1017.9
20260507170803 21 0 0.0 3.2 0.00 0.00 0.00 48 1017.9
20260507170717 21 0 0.0 3.2 0.00 0.00 0.00 48 1017.9
20260507170603 21 0 0.0 3.2 0.00 0.00 0.00 48 1017.9
20260507170517 21 0 0.0 3.2 0.00 0.00 0.00 48 1017.8
20260507170403 21 0 0.0 3.2 0.00 0.00 0.00 49 1017.8
20260507170317 21 0 0.0 3.2 0.00 0.00 0.00 49 1017.8
20260507170203 21 0 0.0 0.0 0.00 0.00 0.00 49 1017.8
20260507170117 21 0 0.0 0.0 0.00 0.00 0.00 48 1017.8
20260507170003 21 0 0.0 0.0 0.00 0.00 0.00 48 1017.8
20260507165917 21 0 0.0 0.0 0.00 0.00 0.00 48 1017.8
20260507165803 21 0 0.0 0.0 0.00 0.00 0.00 48 1017.8
20260507165716 21 0 0.0 0.0 0.00 0.00 0.00 49 1017.7
20260507165603 21 0 0.0 0.0 0.00 0.00 0.00 49 1017.7
20260507165516 21 0 0.0 3.2 0.00 0.00 0.00 49 1017.6
20260507165404 21 0 0.0 3.2 0.00 0.00 0.00 49 1017.7
20260507165316 21 286 0.0 3.2 0.00 0.00 0.00 49 1017.6
20260507165203 21 286 0.0 3.2 0.00 0.00 0.00 49 1017.7
20260507165116 21 286 0.0 3.2 0.00 0.00 0.00 49 1017.7
20260507165003 21 286 1.6 3.2 0.00 0.00 0.00 48 1017.7
20260507164917 21 286 1.6 6.4 0.00 0.00 0.00 48 1017.7
20260507164803 21 286 1.6 6.4 0.00 0.00 0.00 49 1017.8
20260507164716 21 286 1.6 6.4 0.00 0.00 0.00 48 1017.8
20260507164604 21 286 1.6 6.4 0.00 0.00 0.00 48 1017.8
20260507164516 21 286 1.6 6.4 0.00 0.00 0.00 48 1017.7
20260507164404 21 286 1.6 6.4 0.00 0.00 0.00 49 1017.7
20260507164317 21 286 1.6 6.4 0.00 0.00 0.00 49 1017.7
20260507164203 21 286 1.6 6.4 0.00 0.00 0.00 49 1017.7
20260507164117 21 286 1.6 6.4 0.00 0.00 0.00 49 1017.7
20260507164004 21 286 1.6 6.4 0.00 0.00 0.00 49 1017.8
20260507163916 21 286 1.6 6.4 0.00 0.00 0.00 48 1017.8
20260507163803 21 285 1.6 6.4 0.00 0.00 0.00 48 1017.8
20260507163717 21 285 1.6 6.4 0.00 0.00 0.00 48 1017.8
20260507163604 21 285 1.6 6.4 0.00 0.00 0.00 48 1017.8
20260507163516 21 285 1.6 6.4 0.00 0.00 0.00 48 1017.7
20260507163404 21 285 1.6 6.4 0.00 0.00 0.00 49 1017.7
20260507163317 21 286 1.6 6.4 0.00 0.00 0.00 49 1017.7
20260507163204 21 286 1.6 6.4 0.00 0.00 0.00 49 1017.7
20260507163116 21 286 1.6 6.4 0.00 0.00 0.00 49 1017.7
20260507163004 21 285 1.6 6.4 0.00 0.00 0.00 49 1017.6
20260507162917 21 285 1.6 6.4 0.00 0.00 0.00 49 1017.7
20260507162804 21 285 1.6 6.4 0.00 0.00 0.00 49 1017.7
20260507162716 21 285 1.6 9.7 0.00 0.00 0.00 49 1017.7
20260507162603 21 285 1.6 9.7 0.00 0.00 0.00 49 1017.7
20260507162517 21 285 1.6 9.7 0.00 0.00 0.00 50 1017.6
20260507162403 21 285 1.6 9.7 0.00 0.00 0.00 50 1017.7
20260507162316 21 285 1.6 9.7 0.00 0.00 0.00 50 1017.6
20260507162204 21 285 1.6 9.7 0.00 0.00 0.00 50 1017.6
20260507162116 21 285 1.6 9.7 0.00 0.00 0.00 50 1017.7
20260507162003 21 286 1.6 9.7 0.00 0.00 0.00 50 1017.6
20260507161916 21 286 1.6 9.7 0.00 0.00 0.00 50 1017.6
20260507161803 21 285 1.6 9.7 0.00 0.00 0.00 50 1017.6
20260507161716 21 285 1.6 9.7 0.00 0.00 0.00 50 1017.6
20260507161603 21 285 1.6 9.7 0.00 0.00 0.00 50 1017.6
20260507161517 22 285 1.6 9.7 0.00 0.00 0.00 50 1017.6
20260507161403 22 286 1.6 9.7 0.00 0.00 0.00 50 1017.6
20260507161316 22 285 3.2 9.7 0.00 0.00 0.00 50 1017.6
20260507161203 22 285 3.2 9.7 0.00 0.00 0.00 50 1017.6
20260507161116 22 285 3.2 9.7 0.00 0.00 0.00 50 1017.6
20260507161003 22 285 3.2 9.7 0.00 0.00 0.00 50 1017.6
20260507160916 22 285 3.2 9.7 0.00 0.00 0.00 50 1017.7
20260507160803 22 285 3.2 9.7 0.00 0.00 0.00 50 1017.7
20260507160716 22 283 3.2 9.7 0.00 0.00 0.00 50 1017.7
20260507160603 22 280 3.2 9.7 0.00 0.00 0.00 49 1017.7
20260507160516 22 277 3.2 9.7 0.00 0.00 0.00 49 1017.7
20260507160404 22 273 3.2 9.7 0.00 0.00 0.00 49 1017.7
20260507160316 22 272 3.2 9.7 0.00 0.00 0.00 49 1017.7
20260507160203 22 270 3.2 9.7 0.00 0.00 0.00 49 1017.7
20260507160117 22 267 3.2 9.7 0.00 0.00 0.00 49 1017.7
20260507160004 22 264 3.2 9.7 0.00 0.00 0.00 49 1017.7
20260507155916 22 262 3.2 9.7 0.00 0.00 0.00 48 1017.7
20260507155803 22 259 1.6 9.7 0.00 0.00 0.00 48 1017.7
20260507155716 22 256 1.6 9.7 0.00 0.00 0.00 48 1017.7
20260507155603 22 255 1.6 9.7 0.00 0.00 0.00 48 1017.7
20260507155516 22 254 1.6 9.7 0.00 0.00 0.00 48 1017.7
20260507155404 22 252 1.6 9.7 0.00 0.00 0.00 48 1017.7
20260507155316 22 251 1.6 9.7 0.00 0.00 0.00 48 1017.7
20260507155203 22 251 1.6 9.7 0.00 0.00 0.00 48 1017.6
20260507155116 22 251 1.6 9.7 0.00 0.00 0.00 48 1017.5
20260507155004 22 251 1.6 9.7 0.00 0.00 0.00 48 1017.5
20260507154915 22 251 1.6 9.7 0.00 0.00 0.00 48 1017.5
20260507154803 22 251 1.6 9.7 0.00 0.00 0.00 48 1017.5
20260507154716 22 251 1.6 9.7 0.00 0.00 0.00 49 1017.5
20260507154603 22 250 3.2 9.7 0.00 0.00 0.00 49 1017.5
20260507154516 22 250 3.2 9.7 0.00 0.00 0.00 49 1017.5
20260507154403 22 250 3.2 9.7 0.00 0.00 0.00 48 1017.5
20260507154316 22 250 3.2 9.7 0.00 0.00 0.00 48 1017.5
20260507154203 22 250 3.2 9.7 0.00 0.00 0.00 48 1017.5
20260507154116 22 250 3.2 9.7 0.00 0.00 0.00 48 1017.5
20260507154003 22 250 3.2 9.7 0.00 0.00 0.00 48 1017.6
20260507153917 22 248 4.8 9.7 0.00 0.00 0.00 48 1017.6
20260507153804 22 246 4.8 9.7 0.00 0.00 0.00 49 1017.6
20260507153716 22 244 4.8 9.7 0.00 0.00 0.00 48 1017.6
20260507153603 22 240 4.8 9.7 0.00 0.00 0.00 48 1017.6
20260507153516 22 238 4.8 9.7 0.00 0.00 0.00 48 1017.6
20260507153404 22 236 4.8 9.7 0.00 0.00 0.00 48 1017.6
20260507153316 22 234 4.8 9.7 0.00 0.00 0.00 48 1017.5
20260507153203 22 232 4.8 14.5 0.00 0.00 0.00 48 1017.5
20260507153116 22 233 4.8 14.5 0.00 0.00 0.00 48 1017.6
20260507153003 22 233 4.8 14.5 0.00 0.00 0.00 48 1017.6
20260507152916 22 236 6.4 14.5 0.00 0.00 0.00 47 1017.6
20260507152803 22 240 6.4 14.5 0.00 0.00 0.00 47 1017.6
20260507152717 22 244 6.4 14.5 0.00 0.00 0.00 48 1017.6
20260507152604 22 245 6.4 14.5 0.00 0.00 0.00 47 1017.6
20260507152516 22 245 6.4 14.5 0.00 0.00 0.00 47 1017.6
20260507152403 22 243 6.4 14.5 0.00 0.00 0.00 47 1017.7
20260507152316 22 243 6.4 14.5 0.00 0.00 0.00 46 1017.7
20260507152203 22 243 6.4 9.7 0.00 0.00 0.00 46 1017.7
20260507152116 22 236 6.4 11.3 0.00 0.00 0.00 45 1017.7
20260507152004 22 234 6.4 11.3 0.00 0.00 0.00 44 1017.7
20260507151916 22 229 6.4 11.3 0.00 0.00 0.00 44 1017.7
20260507151803 22 226 6.4 11.3 0.00 0.00 0.00 43 1017.7
20260507151717 23 224 6.4 11.3 0.00 0.00 0.00 43 1017.7
20260507151603 23 226 6.4 11.3 0.00 0.00 0.00 43 1017.7
20260507151516 23 227 6.4 11.3 0.00 0.00 0.00 43 1017.7
20260507151404 23 227 6.4 11.3 0.00 0.00 0.00 43 1017.7
20260507151316 23 228 6.4 11.3 0.00 0.00 0.00 44 1017.7
20260507151203 23 228 6.4 11.3 0.00 0.00 0.00 44 1017.7
20260507151116 23 228 6.4 11.3 0.00 0.00 0.00 44 1017.7
20260507151003 23 229 6.4 11.3 0.00 0.00 0.00 45 1017.7
20260507150915 23 231 6.4 11.3 0.00 0.00 0.00 45 1017.7
20260507150803 23 232 6.4 11.3 0.00 0.00 0.00 45 1017.7
20260507150716 23 233 6.4 11.3 0.00 0.00 0.00 45 1017.7
20260507150604 23 228 6.4 11.3 0.00 0.00 0.00 45 1017.8
20260507150516 23 226 6.4 11.3 0.00 0.00 0.00 45 1017.8
20260507150403 23 230 6.4 11.3 0.00 0.00 0.00 45 1017.8
20260507150316 23 233 8.0 17.7 0.00 0.00 0.00 44 1017.8
20260507150203 23 236 8.0 20.9 0.00 0.00 0.00 43 1017.8
20260507150115 23 236 8.0 24.1 0.00 0.00 0.00 43 1017.8
20260507150003 23 234 8.0 24.1 0.00 0.00 0.00 43 1017.8
20260507145915 23 232 8.0 24.1 0.00 0.00 0.00 42 1017.7
20260507145803 23 232 8.0 24.1 0.00 0.00 0.00 41 1017.7
20260507145716 23 233 8.0 24.1 0.00 0.00 0.00 41 1017.7
20260507145604 23 236 8.0 24.1 0.00 0.00 0.00 40 1017.7
20260507145516 23 240 8.0 24.1 0.00 0.00 0.00 39 1017.8
20260507145404 23 241 8.0 24.1 0.00 0.00 0.00 38 1017.8
20260507145316 23 241 8.0 24.1 0.00 0.00 0.00 38 1017.7
20260507145203 23 243 8.0 24.1 0.00 0.00 0.00 40 1017.7
20260507145115 23 247 8.0 20.9 0.00 0.00 0.00 40 1017.8
20260507145003 23 252 8.0 20.9 0.00 0.00 0.00 39 1017.8
20260507144915 23 256 8.0 20.9 0.00 0.00 0.00 41 1017.7
20260507144803 23 256 8.0 20.9 0.00 0.00 0.00 42 1017.7
20260507144716 23 255 8.0 20.9 0.00 0.00 0.00 43 1017.6
20260507144604 23 254 8.0 20.9 0.00 0.00 0.00 43 1017.6
20260507144516 23 252 9.7 20.9 0.00 0.00 0.00 43 1017.6
20260507144404 23 247 9.7 20.9 0.00 0.00 0.00 41 1017.6
20260507144316 24 245 9.7 20.9 0.00 0.00 0.00 42 1017.6
20260507144203 24 240 9.7 20.9 0.00 0.00 0.00 41 1017.6
20260507144116 23 235 9.7 20.9 0.00 0.00 0.00 41 1017.6
20260507144003 24 231 9.7 20.9 0.00 0.00 0.00 41 1017.6
20260507143915 24 227 9.7 20.9 0.00 0.00 0.00 41 1017.7
20260507143803 24 223 9.7 20.9 0.00 0.00 0.00 41 1017.7
20260507143716 24 225 9.7 20.9 0.00 0.00 0.00 41 1017.7
20260507143604 24 223 9.7 20.9 0.00 0.00 0.00 40 1017.6
20260507143516 24 221 9.7 20.9 0.00 0.00 0.00 41 1017.6
20260507143404 24 220 9.7 20.9 0.00 0.00 0.00 41 1017.5
20260507143316 24 219 9.7 20.9 0.00 0.00 0.00 43 1017.5
20260507143203 24 221 9.7 20.9 0.00 0.00 0.00 41 1017.5
20260507143116 24 220 8.0 24.1 0.00 0.00 0.00 42 1017.4
20260507143003 24 220 8.0 24.1 0.00 0.00 0.00 41 1017.4
20260507142915 24 222 8.0 24.1 0.00 0.00 0.00 41 1017.4
20260507142803 24 226 8.0 24.1 0.00 0.00 0.00 41 1017.4
20260507142715 24 223 8.0 24.1 0.00 0.00 0.00 40 1017.4
20260507142603 24 222 8.0 24.1 0.00 0.00 0.00 40 1017.4
20260507142516 24 223 8.0 24.1 0.00 0.00 0.00 40 1017.4
20260507142404 24 225 8.0 24.1 0.00 0.00 0.00 41 1017.5
20260507142316 24 224 8.0 24.1 0.00 0.00 0.00 40 1017.5
20260507142204 24 221 6.4 24.1 0.00 0.00 0.00 42 1017.4
20260507142116 24 226 6.4 24.1 0.00 0.00 0.00 43 1017.4
20260507142003 24 229 6.4 24.1 0.00 0.00 0.00 43 1017.4
20260507141915 24 232 6.4 17.7 0.00 0.00 0.00 43 1017.4
20260507141803 24 233 6.4 17.7 0.00 0.00 0.00 42 1017.4
20260507141716 24 234 6.4 17.7 0.00 0.00 0.00 42 1017.3
20260507141603 24 234 6.4 17.7 0.00 0.00 0.00 42 1017.4
20260507141516 24 232 6.4 17.7 0.00 0.00 0.00 40 1017.4
20260507141404 24 238 6.4 17.7 0.00 0.00 0.00 40 1017.4
20260507141316 23 241 6.4 17.7 0.00 0.00 0.00 44 1017.4
20260507141203 23 244 8.0 17.7 0.00 0.00 0.00 44 1017.4
20260507141115 23 237 8.0 17.7 0.00 0.00 0.00 43 1017.4
20260507141003 23 231 8.0 17.7 0.00 0.00 0.00 44 1017.5
20260507140915 23 227 8.0 17.7 0.00 0.00 0.00 45 1017.5
20260507140803 23 228 8.0 20.9 0.00 0.00 0.00 45 1017.6
20260507140716 24 228 8.0 20.9 0.00 0.00 0.00 46 1017.6
20260507140603 24 232 8.0 20.9 0.00 0.00 0.00 45 1017.6
20260507140516 23 237 9.7 20.9 0.00 0.00 0.00 45 1017.6
20260507140403 23 234 9.7 20.9 0.00 0.00 0.00 45 1017.6
20260507140316 23 232 9.7 20.9 0.00 0.00 0.00 43 1017.7
20260507140204 23 233 9.7 20.9 0.00 0.00 0.00 42 1017.7
20260507140116 23 234 9.7 20.9 0.00 0.00 0.00 41 1017.7
20260507140004 23 236 9.7 20.9 0.00 0.00 0.00 42 1017.7
20260507135916 23 235 9.7 20.9 0.00 0.00 0.00 43 1017.8
20260507135804 23 230 11.3 20.9 0.00 0.00 0.00 45 1017.8
20260507135716 23 230 11.3 20.9 0.00 0.00 0.00 44 1017.8
20260507135604 23 225 11.3 20.9 0.00 0.00 0.00 43 1017.8
20260507135516 24 218 11.3 20.9 0.00 0.00 0.00 42 1017.8
20260507135403 24 217 11.3 20.9 0.00 0.00 0.00 42 1017.8
20260507135315 24 219 11.3 20.9 0.00 0.00 0.00 42 1017.8
20260507135203 23 220 11.3 20.9 0.00 0.00 0.00 42 1017.8
20260507135116 23 221 11.3 20.9 0.00 0.00 0.00 41 1017.7
20260507135003 23 221 11.3 24.1 0.00 0.00 0.00 41 1017.7
20260507134916 23 222 11.3 24.1 0.00 0.00 0.00 43 1017.6
20260507134803 23 222 11.3 24.1 0.00 0.00 0.00 42 1017.6
20260507134716 23 222 11.3 24.1 0.00 0.00 0.00 42 1017.6
20260507134604 23 223 11.3 24.1 0.00 0.00 0.00 38 1017.7
20260507134516 23 226 11.3 24.1 0.00 0.00 0.00 37 1017.7
20260507134404 24 225 9.7 24.1 0.00 0.00 0.00 37 1017.8
20260507134316 24 225 9.7 24.1 0.00 0.00 0.00 36 1017.8
20260507134203 24 224 9.7 24.1 0.00 0.00 0.00 35 1017.8
20260507134115 24 225 9.7 24.1 0.00 0.00 0.00 35 1017.8
20260507134003 24 228 9.7 24.1 0.00 0.00 0.00 36 1017.8
20260507133915 24 229 9.7 24.1 0.00 0.00 0.00 37 1017.8
20260507133804 24 229 9.7 24.1 0.00 0.00 0.00 36 1017.8
20260507133716 24 229 9.7 29.0 0.00 0.00 0.00 36 1017.7
20260507133603 24 232 9.7 29.0 0.00 0.00 0.00 37 1017.8
20260507133515 24 232 9.7 29.0 0.00 0.00 0.00 37 1017.8
20260507133404 24 231 9.7 29.0 0.00 0.00 0.00 38 1017.8
20260507133316 24 228 9.7 29.0 0.00 0.00 0.00 39 1017.8
20260507133203 24 227 9.7 29.0 0.00 0.00 0.00 39 1017.8
20260507133116 24 225 9.7 29.0 0.00 0.00 0.00 40 1017.8
20260507133003 24 223 9.7 29.0 0.00 0.00 0.00 38 1017.7
20260507132915 24 224 9.7 29.0 0.00 0.00 0.00 38 1017.7
20260507132803 24 226 9.7 29.0 0.00 0.00 0.00 37 1017.7
20260507132715 24 226 9.7 20.9 0.00 0.00 0.00 37 1017.7
20260507132604 24 222 9.7 20.9 0.00 0.00 0.00 36 1017.6
20260507132516 24 220 9.7 20.9 0.00 0.00 0.00 34 1017.7
20260507132403 24 223 9.7 20.9 0.00 0.00 0.00 33 1017.7
20260507132315 24 227 9.7 24.1 0.00 0.00 0.00 33 1017.6
20260507132203 24 227 9.7 24.1 0.00 0.00 0.00 34 1017.6
20260507132116 24 230 9.7 24.1 0.00 0.00 0.00 35 1017.6
20260507132004 24 235 9.7 24.1 0.00 0.00 0.00 35 1017.5
20260507131915 24 234 9.7 24.1 0.00 0.00 0.00 36 1017.6
20260507131803 24 232 9.7 24.1 0.00 0.00 0.00 35 1017.6
20260507131716 25 234 9.7 24.1 0.00 0.00 0.00 37 1017.7
20260507131604 24 233 9.7 24.1 0.00 0.00 0.00 37 1017.7
20260507131516 24 235 9.7 24.1 0.00 0.00 0.00 36 1017.7
20260507131403 24 233 9.7 24.1 0.00 0.00 0.00 38 1017.7
20260507131315 24 232 9.7 24.1 0.00 0.00 0.00 38 1017.7
20260507131203 25 233 9.7 24.1 0.00 0.00 0.00 37 1017.7
20260507131116 25 228 9.7 24.1 0.00 0.00 0.00 36 1017.7
20260507131004 25 223 9.7 24.1 0.00 0.00 0.00 36 1017.7
20260507130916 25 223 9.7 24.1 0.00 0.00 0.00 36 1017.6
20260507130803 25 225 9.7 24.1 0.00 0.00 0.00 34 1017.6
20260507130716 25 223 9.7 24.1 0.00 0.00 0.00 34 1017.6
20260507130603 25 226 9.7 24.1 0.00 0.00 0.00 32 1017.6
20260507130516 25 228 9.7 24.1 0.00 0.00 0.00 33 1017.6
20260507130403 25 229 9.7 24.1 0.00 0.00 0.00 34 1017.7
20260507130315 25 228 9.7 24.1 0.00 0.00 0.00 33 1017.8
20260507130203 25 226 9.7 24.1 0.00 0.00 0.00 31 1017.9
20260507130116 25 226 9.7 27.4 0.00 0.00 0.00 32 1017.9
20260507130004 25 226 9.7 27.4 0.00 0.00 0.00 34 1017.9
20260507125915 25 226 9.7 27.4 0.00 0.00 0.00 34 1018.0
20260507125804 25 226 9.7 27.4 0.00 0.00 0.00 35 1018.0
20260507125716 25 228 9.7 27.4 0.00 0.00 0.00 37 1018.0
20260507125603 25 225 11.3 27.4 0.00 0.00 0.00 37 1018.0
20260507125515 25 223 11.3 27.4 0.00 0.00 0.00 40 1018.1
20260507125403 25 222 11.3 27.4 0.00 0.00 0.00 37 1018.1
20260507125315 25 223 11.3 27.4 0.00 0.00 0.00 38 1018.2
20260507125203 25 225 11.3 27.4 0.00 0.00 0.00 38 1018.2
20260507125115 25 226 11.3 27.4 0.00 0.00 0.00 39 1018.2
20260507125004 24 225 11.3 24.1 0.00 0.00 0.00 39 1018.2
20260507124916 24 224 11.3 24.1 0.00 0.00 0.00 40 1018.1
20260507124804 24 224 11.3 29.0 0.00 0.00 0.00 41 1018.1
20260507124716 24 223 12.9 29.0 0.00 0.00 0.00 39 1018.0
20260507124604 24 223 12.9 29.0 0.00 0.00 0.00 40 1017.9
20260507124516 24 223 12.9 29.0 0.00 0.00 0.00 42 1017.9
20260507124403 24 223 12.9 29.0 0.00 0.00 0.00 42 1018.0
20260507124315 24 222 12.9 29.0 0.00 0.00 0.00 42 1018.0
20260507124204 24 222 12.9 29.0 0.00 0.00 0.00 42 1018.0
20260507124115 24 221 12.9 29.0 0.00 0.00 0.00 42 1018.1
20260507124003 25 221 14.5 29.0 0.00 0.00 0.00 42 1018.1
20260507123916 25 220 14.5 29.0 0.00 0.00 0.00 43 1018.2
20260507123804 24 220 14.5 29.0 0.00 0.00 0.00 43 1018.1
20260507123716 24 219 14.5 29.0 0.00 0.00 0.00 42 1018.2
20260507123604 24 220 14.5 29.0 0.00 0.00 0.00 43 1018.2
20260507123516 24 223 14.5 29.0 0.00 0.00 0.00 42 1018.2
20260507123404 24 222 16.1 29.0 0.00 0.00 0.00 44 1018.2
20260507123315 24 221 16.1 29.0 0.00 0.00 0.00 43 1018.2
20260507123203 24 221 16.1 29.0 0.00 0.00 0.00 43 1018.1
20260507123115 24 220 16.1 29.0 0.00 0.00 0.00 42 1018.2
20260507123003 24 218 16.1 29.0 0.00 0.00 0.00 44 1018.2
20260507122915 24 219 16.1 29.0 0.00 0.00 0.00 43 1018.2
20260507122803 25 219 16.1 29.0 0.00 0.00 0.00 43 1018.2
20260507122715 25 221 16.1 29.0 0.00 0.00 0.00 44 1018.2
20260507122603 25 220 16.1 29.0 0.00 0.00 0.00 44 1018.2
20260507122516 25 218 16.1 29.0 0.00 0.00 0.00 44 1018.3
20260507122404 25 220 16.1 29.0 0.00 0.00 0.00 46 1018.3
20260507122315 25 222 16.1 29.0 0.00 0.00 0.00 45 1018.3
20260507122203 24 224 14.5 32.2 0.00 0.00 0.00 44 1018.3
20260507122116 24 226 14.5 32.2 0.00 0.00 0.00 44 1018.3
20260507122004 24 228 14.5 32.2 0.00 0.00 0.00 42 1018.3
20260507121916 24 229 14.5 32.2 0.00 0.00 0.00 39 1018.3
20260507121804 24 229 14.5 32.2 0.00 0.00 0.00 40 1018.3
20260507121716 24 227 14.5 32.2 0.00 0.00 0.00 42 1018.3
20260507121604 24 229 14.5 32.2 0.00 0.00 0.00 42 1018.3
20260507121515 24 230 14.5 32.2 0.00 0.00 0.00 41 1018.3
20260507121403 25 232 16.1 32.2 0.00 0.00 0.00 41 1018.3
20260507121316 25 232 16.1 32.2 0.00 0.00 0.00 40 1018.3
20260507121204 25 232 16.1 32.2 0.00 0.00 0.00 42 1018.3
20260507121116 25 233 16.1 32.2 0.00 0.00 0.00 43 1018.3
20260507121004 25 231 16.1 32.2 0.00 0.00 0.00 44 1018.3
20260507120915 25 230 16.1 32.2 0.00 0.00 0.00 43 1018.2
20260507120803 25 228 16.1 32.2 0.00 0.00 0.00 41 1018.2
20260507120716 24 228 16.1 32.2 0.00 0.00 0.00 40 1018.3
20260507120603 24 227 16.1 35.4 0.00 0.00 0.00 39 1018.2
20260507120515 24 225 16.1 35.4 0.00 0.00 0.00 38 1018.3
20260507120404 25 222 16.1 35.4 0.00 0.00 0.00 39 1018.3
20260507120316 25 221 16.1 35.4 0.00 0.00 0.00 40 1018.3
20260507120203 25 222 16.1 35.4 0.00 0.00 0.00 41 1018.2
20260507120115 25 222 16.1 35.4 0.00 0.00 0.00 41 1018.3
20260507120004 25 222 16.1 35.4 0.00 0.00 0.00 40 1018.3
20260507115915 25 224 16.1 35.4 0.00 0.00 0.00 40 1018.2
20260507115804 25 226 16.1 35.4 0.00 0.00 0.00 39 1018.2
20260507115715 25 225 16.1 35.4 0.00 0.00 0.00 37 1018.2
20260507115603 25 226 16.1 32.2 0.00 0.00 0.00 37 1018.2
20260507115516 25 225 16.1 29.0 0.00 0.00 0.00 37 1018.1
20260507115403 25 225 16.1 29.0 0.00 0.00 0.00 38 1018.1
20260507115317 25 223 16.1 29.0 0.00 0.00 0.00 37 1018.1
20260507115203 25 222 16.1 29.0 0.00 0.00 0.00 39 1018.1
20260507115116 25 223 16.1 29.0 0.00 0.00 0.00 37 1018.0
20260507115004 25 226 16.1 29.0 0.00 0.00 0.00 38 1018.1
20260507114916 25 226 16.1 29.0 0.00 0.00 0.00 38 1018.0
20260507114804 25 227 16.1 29.0 0.00 0.00 0.00 36 1018.0
20260507114716 25 229 16.1 29.0 0.00 0.00 0.00 35 1018.0
20260507114603 25 228 16.1 29.0 0.00 0.00 0.00 33 1017.9
20260507114516 25 228 16.1 29.0 0.00 0.00 0.00 32 1017.9
20260507114404 25 230 16.1 32.2 0.00 0.00 0.00 35 1017.9
20260507114316 25 231 16.1 32.2 0.00 0.00 0.00 34 1017.9
20260507114203 25 230 16.1 32.2 0.00 0.00 0.00 33 1017.9
20260507114116 25 230 16.1 32.2 0.00 0.00 0.00 33 1017.8
20260507114003 25 227 16.1 32.2 0.00 0.00 0.00 33 1017.8
20260507113915 25 227 16.1 32.2 0.00 0.00 0.00 34 1017.9
20260507113804 25 227 16.1 32.2 0.00 0.00 0.00 32 1017.9
20260507113716 25 224 16.1 32.2 0.00 0.00 0.00 30 1017.9
20260507113603 25 226 14.5 32.2 0.00 0.00 0.00 30 1017.9
20260507113516 25 226 14.5 32.2 0.00 0.00 0.00 28 1017.9
20260507113403 25 225 14.5 29.0 0.00 0.00 0.00 27 1017.9
20260507113316 25 222 14.5 29.0 0.00 0.00 0.00 28 1017.9
20260507113203 25 221 14.5 29.0 0.00 0.00 0.00 28 1017.9
20260507113116 26 220 12.9 29.0 0.00 0.00 0.00 26 1017.9
20260507113004 26 222 12.9 29.0 0.00 0.00 0.00 27 1017.9
20260507112916 26 218 12.9 29.0 0.00 0.00 0.00 26 1017.9
20260507112804 26 217 12.9 29.0 0.00 0.00 0.00 25 1017.9
20260507112716 26 220 12.9 29.0 0.00 0.00 0.00 26 1017.9
20260507112604 26 221 12.9 29.0 0.00 0.00 0.00 28 1017.9
20260507112516 26 221 12.9 29.0 0.00 0.00 0.00 29 1017.9
20260507112404 26 221 12.9 29.0 0.00 0.00 0.00 30 1017.9
20260507112317 26 226 12.9 27.4 0.00 0.00 0.00 29 1017.8
20260507112203 26 229 12.9 27.4 0.00 0.00 0.00 28 1017.9
20260507112116 26 231 12.9 27.4 0.00 0.00 0.00 29 1017.9
20260507112004 26 232 12.9 27.4 0.00 0.00 0.00 33 1017.9
20260507111915 25 237 14.5 27.4 0.00 0.00 0.00 32 1017.9
20260507111803 25 238 14.5 27.4 0.00 0.00 0.00 29 1017.9
20260507111716 25 236 14.5 27.4 0.00 0.00 0.00 31 1017.9
20260507111603 25 234 14.5 27.4 0.00 0.00 0.00 31 1017.8
20260507111516 25 233 16.1 29.0 0.00 0.00 0.00 32 1017.9
20260507111404 25 232 16.1 29.0 0.00 0.00 0.00 27 1017.8
20260507111316 25 228 16.1 29.0 0.00 0.00 0.00 27 1017.8
20260507111204 25 226 16.1 29.0 0.00 0.00 0.00 27 1017.8
20260507111117 25 224 16.1 29.0 0.00 0.00 0.00 27 1017.8
20260507111004 25 219 16.1 29.0 0.00 0.00 0.00 29 1017.8
20260507110916 25 216 16.1 38.6 0.00 0.00 0.00 29 1017.8
20260507110804 25 213 16.1 38.6 0.00 0.00 0.00 29 1017.8
20260507110715 25 213 16.1 38.6 0.00 0.00 0.00 28 1017.8
20260507110604 25 212 16.1 38.6 0.00 0.00 0.00 31 1017.8
20260507110515 25 212 16.1 38.6 0.00 0.00 0.00 30 1017.7
20260507110404 25 214 16.1 38.6 0.00 0.00 0.00 31 1017.8
20260507110316 25 215 16.1 38.6 0.00 0.00 0.00 30 1017.7
20260507110204 25 215 16.1 38.6 0.00 0.00 0.00 33 1017.7
20260507110116 25 214 16.1 38.6 0.00 0.00 0.00 34 1017.7
20260507110005 25 217 16.1 38.6 0.00 0.00 0.00 33 1017.8
20260507105915 25 220 16.1 32.2 0.00 0.00 0.00 36 1017.8
20260507105804 25 222 16.1 29.0 0.00 0.00 0.00 36 1017.8
20260507105715 25 222 16.1 32.2 0.00 0.00 0.00 35 1017.8
20260507105604 25 225 16.1 32.2 0.00 0.00 0.00 32 1017.9
20260507105516 25 226 14.5 32.2 0.00 0.00 0.00 35 1017.9
20260507105403 25 229 14.5 32.2 0.00 0.00 0.00 36 1018.0
20260507105315 25 233 14.5 32.2 0.00 0.00 0.00 35 1018.0
20260507105204 25 237 12.9 32.2 0.00 0.00 0.00 31 1018.0
20260507105116 25 237 12.9 32.2 0.00 0.00 0.00 31 1018.0
20260507105004 25 237 12.9 32.2 0.00 0.00 0.00 33 1018.0
20260507104915 25 239 11.3 32.2 0.00 0.00 0.00 34 1018.0
20260507104804 25 243 11.3 32.2 0.00 0.00 0.00 35 1017.9
20260507104716 25 244 11.3 32.2 0.00 0.00 0.00 36 1017.9
20260507104604 25 245 11.3 32.2 0.00 0.00 0.00 35 1017.9
20260507104516 25 247 11.3 29.0 0.00 0.00 0.00 35 1017.8
20260507104404 25 241 11.3 29.0 0.00 0.00 0.00 36 1017.8
20260507104315 25 235 11.3 27.4 0.00 0.00 0.00 35 1017.8
20260507104204 25 230 11.3 27.4 0.00 0.00 0.00 36 1017.8
20260507104116 25 229 11.3 27.4 0.00 0.00 0.00 33 1017.8
20260507104004 25 226 11.3 27.4 0.00 0.00 0.00 33 1017.8
20260507103915 26 219 11.3 27.4 0.00 0.00 0.00 34 1017.8
20260507103804 26 213 11.3 27.4 0.00 0.00 0.00 33 1017.8
20260507103715 26 209 11.3 27.4 0.00 0.00 0.00 37 1017.7
20260507103603 26 204 11.3 27.4 0.00 0.00 0.00 37 1017.7
20260507103515 25 198 11.3 27.4 0.00 0.00 0.00 35 1017.7
20260507103404 25 198 11.3 27.4 0.00 0.00 0.00 34 1017.7
20260507103315 25 199 11.3 27.4 0.00 0.00 0.00 34 1017.7
20260507103204 25 199 11.3 27.4 0.00 0.00 0.00 34 1017.7
20260507103116 25 200 11.3 27.4 0.00 0.00 0.00 33 1017.7
20260507103003 25 202 11.3 29.0 0.00 0.00 0.00 34 1017.7
20260507102916 25 204 11.3 29.0 0.00 0.00 0.00 34 1017.7
20260507102804 25 206 11.3 29.0 0.00 0.00 0.00 35 1017.7
20260507102715 25 208 11.3 29.0 0.00 0.00 0.00 35 1017.7
20260507102604 25 208 11.3 32.2 0.00 0.00 0.00 35 1017.6
20260507102516 25 211 11.3 32.2 0.00 0.00 0.00 35 1017.6
20260507102403 25 210 11.3 32.2 0.00 0.00 0.00 34 1017.7
20260507102316 25 210 12.9 32.2 0.00 0.00 0.00 35 1017.7
20260507102204 25 210 12.9 32.2 0.00 0.00 0.00 36 1017.7
20260507102116 25 208 12.9 32.2 0.00 0.00 0.00 34 1017.8
20260507102006 25 210 12.9 32.2 0.00 0.00 0.00 33 1017.8
20260507101916 25 208 12.9 32.2 0.00 0.00 0.00 36 1017.8
20260507101804 25 208 12.9 32.2 0.00 0.00 0.00 36 1017.8
20260507101716 25 210 12.9 32.2 0.00 0.00 0.00 34 1017.9
20260507101604 25 211 12.9 29.0 0.00 0.00 0.00 36 1017.9
20260507101517 25 213 12.9 29.0 0.00 0.00 0.00 36 1017.9
20260507101403 25 215 12.9 29.0 0.00 0.00 0.00 35 1017.9
20260507101316 25 215 12.9 29.0 0.00 0.00 0.00 34 1017.9
20260507101203 24 216 12.9 29.0 0.00 0.00 0.00 35 1017.9
20260507101116 24 218 12.9 29.0 0.00 0.00 0.00 36 1018.0
20260507101004 24 215 12.9 29.0 0.00 0.00 0.00 38 1018.0
20260507100915 24 217 14.5 29.0 0.00 0.00 0.00 41 1018.0
20260507100804 24 215 14.5 29.0 0.00 0.00 0.00 40 1018.0
20260507100715 24 211 14.5 29.0 0.00 0.00 0.00 39 1018.0
20260507100603 24 210 14.5 32.2 0.00 0.00 0.00 37 1018.1
20260507100516 25 208 14.5 32.2 0.00 0.00 0.00 35 1018.1
20260507100404 25 207 14.5 32.2 0.00 0.00 0.00 36 1018.1
20260507100315 25 205 14.5 32.2 0.00 0.00 0.00 37 1018.1
20260507100204 25 204 14.5 32.2 0.00 0.00 0.00 37 1018.1
20260507100116 25 203 14.5 32.2 0.00 0.00 0.00 34 1018.1
20260507100005 25 206 14.5 32.2 0.00 0.00 0.00 33 1018.1
20260507095915 25 206 14.5 32.2 0.00 0.00 0.00 35 1018.2
20260507095804 25 204 14.5 32.2 0.00 0.00 0.00 32 1018.2
20260507095716 25 206 14.5 32.2 0.00 0.00 0.00 31 1018.2
20260507095603 25 209 14.5 32.2 0.00 0.00 0.00 39 1018.2
20260507095516 25 211 14.5 29.0 0.00 0.00 0.00 40 1018.2
20260507095403 25 211 14.5 29.0 0.00 0.00 0.00 37 1018.3
20260507095316 25 211 14.5 29.0 0.00 0.00 0.00 38 1018.3
20260507095204 25 214 14.5 29.0 0.00 0.00 0.00 39 1018.3
20260507095116 24 213 14.5 29.0 0.00 0.00 0.00 37 1018.3
20260507095004 24 210 14.5 29.0 0.00 0.00 0.00 35 1018.3
20260507094916 24 211 14.5 29.0 0.00 0.00 0.00 35 1018.3
20260507094804 24 214 14.5 29.0 0.00 0.00 0.00 36 1018.4
20260507094716 24 215 14.5 29.0 0.00 0.00 0.00 39 1018.3
20260507094604 24 214 14.5 29.0 0.00 0.00 0.00 39 1018.3
20260507094516 24 215 14.5 29.0 0.00 0.00 0.00 40 1018.3
20260507094403 24 216 14.5 29.0 0.00 0.00 0.00 40 1018.3
20260507094316 24 219 14.5 29.0 0.00 0.00 0.00 40 1018.3
20260507094204 24 218 14.5 29.0 0.00 0.00 0.00 38 1018.3
20260507094116 24 216 14.5 29.0 0.00 0.00 0.00 37 1018.3
20260507094003 24 215 14.5 29.0 0.00 0.00 0.00 38 1018.4
20260507093915 24 214 14.5 32.2 0.00 0.00 0.00 39 1018.3
20260507093804 24 214 16.1 32.2 0.00 0.00 0.00 38 1018.3
20260507093715 24 211 16.1 32.2 0.00 0.00 0.00 40 1018.4
20260507093603 24 208 16.1 32.2 0.00 0.00 0.00 41 1018.4
20260507093516 24 203 16.1 32.2 0.00 0.00 0.00 41 1018.3
20260507093403 24 201 16.1 32.2 0.00 0.00 0.00 43 1018.3
20260507093315 24 198 16.1 32.2 0.00 0.00 0.00 42 1018.3
20260507093204 24 195 16.1 41.8 0.00 0.00 0.00 40 1018.3
20260507093116 23 194 16.1 41.8 0.00 0.00 0.00 40 1018.3
20260507093003 23 197 16.1 41.8 0.00 0.00 0.00 43 1018.3
20260507092916 23 198 16.1 41.8 0.00 0.00 0.00 45 1018.3
20260507092804 23 199 16.1 41.8 0.00 0.00 0.00 46 1018.3
20260507092715 23 201 16.1 41.8 0.00 0.00 0.00 47 1018.3
20260507092604 23 205 14.5 41.8 0.00 0.00 0.00 45 1018.4
20260507092516 23 210 14.5 41.8 0.00 0.00 0.00 45 1018.4
20260507092404 23 212 14.5 41.8 0.00 0.00 0.00 49 1018.4
20260507092316 23 214 14.5 41.8 0.00 0.00 0.00 49 1018.5
20260507092204 23 217 14.5 35.4 0.00 0.00 0.00 50 1018.4
20260507092115 23 219 14.5 29.0 0.00 0.00 0.00 51 1018.4
20260507092003 23 222 14.5 29.0 0.00 0.00 0.00 55 1018.5
20260507091916 23 222 14.5 29.0 0.00 0.00 0.00 56 1018.5
20260507091804 23 224 16.1 32.2 0.00 0.00 0.00 55 1018.5
20260507091715 23 224 16.1 32.2 0.00 0.00 0.00 55 1018.5
20260507091605 23 224 16.1 32.2 0.00 0.00 0.00 56 1018.6
20260507091516 23 224 16.1 32.2 0.00 0.00 0.00 57 1018.6
20260507091403 23 224 16.1 32.2 0.00 0.00 0.00 58 1018.6
20260507091316 23 225 16.1 41.8 0.00 0.00 0.00 58 1018.6
20260507091204 22 226 16.1 41.8 0.00 0.00 0.00 58 1018.7
20260507091116 22 228 16.1 41.8 0.00 0.00 0.00 59 1018.7
20260507091003 22 229 16.1 41.8 0.00 0.00 0.00 58 1018.7
20260507090916 22 229 16.1 41.8 0.00 0.00 0.00 59 1018.7
20260507090803 22 230 14.5 41.8 0.00 0.00 0.00 60 1018.7
20260507090716 22 230 14.5 41.8 0.00 0.00 0.00 59 1018.7
20260507090604 22 230 14.5 41.8 0.00 0.00 0.00 58 1018.7
20260507090516 23 229 14.5 41.8 0.00 0.00 0.00 58 1018.6
20260507090404 23 226 14.5 41.8 0.00 0.00 0.00 58 1018.6
20260507090315 23 227 14.5 35.4 0.00 0.00 0.00 59 1018.6
20260507090204 23 230 16.1 35.4 0.00 0.00 0.00 58 1018.6
20260507090116 23 228 16.1 35.4 0.00 0.00 0.00 59 1018.6
20260507090005 23 228 16.1 32.2 0.00 0.00 0.00 58 1018.6
20260507085915 23 229 17.7 32.2 0.00 0.00 0.00 56 1018.6
20260507085804 23 229 17.7 32.2 0.00 0.00 0.00 56 1018.6
20260507085716 23 229 17.7 32.2 0.00 0.00 0.00 55 1018.6
20260507085604 23 227 17.7 32.2 0.00 0.00 0.00 55 1018.6
20260507085516 23 229 19.3 32.2 0.00 0.00 0.00 53 1018.6
20260507085404 23 231 19.3 32.2 0.00 0.00 0.00 50 1018.6
20260507085317 23 230 19.3 35.4 0.00 0.00 0.00 49 1018.6
20260507085203 23 228 19.3 35.4 0.00 0.00 0.00 46 1018.6
20260507085117 23 228 19.3 35.4 0.00 0.00 0.00 46 1018.5
20260507085004 23 225 19.3 35.4 0.00 0.00 0.00 48 1018.5
20260507084916 23 223 19.3 38.6 0.00 0.00 0.00 49 1018.5
20260507084804 23 221 19.3 38.6 0.00 0.00 0.00 46 1018.4
20260507084715 23 218 19.3 38.6 0.00 0.00 0.00 45 1018.4
20260507084603 23 218 19.3 38.6 0.00 0.00 0.00 42 1018.3
20260507084516 24 216 19.3 38.6 0.00 0.00 0.00 41 1018.3
20260507084404 24 216 19.3 38.6 0.00 0.00 0.00 43 1018.3
20260507084315 24 216 19.3 38.6 0.00 0.00 0.00 43 1018.3
20260507084203 24 215 19.3 38.6 0.00 0.00 0.00 40 1018.3
20260507084116 24 215 19.3 38.6 0.00 0.00 0.00 40 1018.3
20260507084004 24 217 19.3 38.6 0.00 0.00 0.00 39 1018.4
20260507083916 24 218 17.7 35.4 0.00 0.00 0.00 36 1018.3
20260507083804 24 219 17.7 35.4 0.00 0.00 0.00 31 1018.3
20260507083716 24 221 17.7 35.4 0.00 0.00 0.00 31 1018.4
20260507083603 24 222 17.7 35.4 0.00 0.00 0.00 32 1018.3
20260507083515 24 223 17.7 32.2 0.00 0.00 0.00 32 1018.3
20260507083404 24 222 16.1 32.2 0.00 0.00 0.00 31 1018.2
20260507083315 24 223 16.1 32.2 0.00 0.00 0.00 31 1018.2
20260507083203 24 225 16.1 32.2 0.00 0.00 0.00 30 1018.2
20260507083115 24 226 16.1 32.2 0.00 0.00 0.00 30 1018.2
20260507083004 24 224 16.1 35.4 0.00 0.00 0.00 29 1018.2
20260507082915 24 226 14.5 35.4 0.00 0.00 0.00 30 1018.1
20260507082804 25 226 14.5 35.4 0.00 0.00 0.00 30 1018.1
20260507082715 25 226 14.5 35.4 0.00 0.00 0.00 30 1018.0
20260507082604 25 225 12.9 35.4 0.00 0.00 0.00 30 1018.0
20260507082516 25 227 12.9 35.4 0.00 0.00 0.00 30 1018.0
20260507082404 25 228 12.9 35.4 0.00 0.00 0.00 30 1018.0
20260507082315 25 228 12.9 35.4 0.00 0.00 0.00 31 1018.0
20260507082203 25 227 12.9 35.4 0.00 0.00 0.00 31 1017.9
20260507082116 25 227 12.9 35.4 0.00 0.00 0.00 32 1018.0
20260507082004 25 224 11.3 29.0 0.00 0.00 0.00 31 1017.9
20260507081916 25 223 11.3 29.0 0.00 0.00 0.00 32 1017.9
20260507081803 25 224 11.3 29.0 0.00 0.00 0.00 32 1017.9
20260507081715 25 227 11.3 29.0 0.00 0.00 0.00 31 1017.9
20260507081604 25 227 11.3 29.0 0.00 0.00 0.00 30 1017.9
20260507081515 25 224 11.3 29.0 0.00 0.00 0.00 30 1017.8
20260507081404 25 223 11.3 29.0 0.00 0.00 0.00 31 1017.8
20260507081316 25 222 9.7 29.0 0.00 0.00 0.00 31 1017.9
20260507081204 25 221 9.7 29.0 0.00 0.00 0.00 31 1017.8
20260507081115 25 221 9.7 27.4 0.00 0.00 0.00 31 1017.8
20260507081004 25 226 9.7 27.4 0.00 0.00 0.00 32 1017.8
20260507080915 25 225 8.0 27.4 0.00 0.00 0.00 32 1017.8
20260507080804 25 223 8.0 27.4 0.00 0.00 0.00 32 1017.8
20260507080716 25 221 8.0 27.4 0.00 0.00 0.00 33 1017.8
20260507080604 24 223 8.0 27.4 0.00 0.00 0.00 32 1017.8
20260507080516 24 224 8.0 27.4 0.00 0.00 0.00 32 1017.8
20260507080403 24 222 8.0 24.1 0.00 0.00 0.00 32 1017.8
20260507080315 24 224 8.0 20.9 0.00 0.00 0.00 33 1017.8
20260507080204 24 227 6.4 20.9 0.00 0.00 0.00 33 1017.8
20260507080116 24 226 6.4 20.9 0.00 0.00 0.00 33 1017.8
20260507080004 24 224 6.4 20.9 0.00 0.00 0.00 34 1017.8
20260507075915 24 226 6.4 20.9 0.00 0.00 0.00 34 1017.8
20260507075803 24 233 6.4 20.9 0.00 0.00 0.00 34 1017.8
20260507075715 24 235 6.4 20.9 0.00 0.00 0.00 34 1017.8
20260507075604 23 237 6.4 20.9 0.00 0.00 0.00 34 1017.8
20260507075515 23 238 6.4 20.9 0.00 0.00 0.00 34 1017.8
20260507075404 23 245 6.4 20.9 0.00 0.00 0.00 34 1017.8
20260507075316 23 246 6.4 20.9 0.00 0.00 0.00 34 1017.8
20260507075204 23 245 6.4 20.9 0.00 0.00 0.00 35 1017.8
20260507075115 23 248 6.4 20.9 0.00 0.00 0.00 35 1017.8
20260507075003 23 255 6.4 20.9 0.00 0.00 0.00 36 1017.9
20260507074915 23 257 6.4 20.9 0.00 0.00 0.00 37 1017.8
20260507074804 23 257 6.4 20.9 0.00 0.00 0.00 38 1017.8
20260507074716 23 254 6.4 20.9 0.00 0.00 0.00 39 1017.8
20260507074603 23 251 6.4 17.7 0.00 0.00 0.00 40 1017.8
20260507074515 23 251 6.4 17.7 0.00 0.00 0.00 41 1017.8
20260507074404 23 251 6.4 14.5 0.00 0.00 0.00 44 1017.8
20260507074315 23 255 6.4 14.5 0.00 0.00 0.00 44 1017.8
20260507074204 23 258 6.4 14.5 0.00 0.00 0.00 44 1017.8
20260507074116 23 260 6.4 14.5 0.00 0.00 0.00 44 1017.8
20260507074004 23 256 6.4 14.5 0.00 0.00 0.00 45 1017.8
20260507073915 23 250 6.4 14.5 0.00 0.00 0.00 45 1017.8
20260507073803 23 243 6.4 14.5 0.00 0.00 0.00 44 1017.7
20260507073716 23 241 6.4 17.7 0.00 0.00 0.00 44 1017.8
20260507073603 23 243 6.4 17.7 0.00 0.00 0.00 44 1017.8
20260507073515 23 246 6.4 17.7 0.00 0.00 0.00 44 1017.7
20260507073403 23 249 4.8 17.7 0.00 0.00 0.00 44 1017.7
20260507073315 23 251 4.8 17.7 0.00 0.00 0.00 44 1017.7
20260507073203 23 250 4.8 17.7 0.00 0.00 0.00 44 1017.8
20260507073115 23 249 4.8 17.7 0.00 0.00 0.00 45 1017.7
20260507073003 23 255 4.8 17.7 0.00 0.00 0.00 46 1017.7
20260507072915 23 261 4.8 17.7 0.00 0.00 0.00 47 1017.7
20260507072803 23 272 4.8 17.7 0.00 0.00 0.00 48 1017.7
20260507072715 23 285 4.8 14.5 0.00 0.00 0.00 52 1017.7
20260507072604 23 275 4.8 14.5 0.00 0.00 0.00 52 1017.7
20260507072516 23 272 4.8 14.5 0.00 0.00 0.00 52 1017.7
20260507072404 23 270 4.8 14.5 0.00 0.00 0.00 52 1017.7
20260507072318 23 270 4.8 14.5 0.00 0.00 0.00 52 1017.6
20260507072203 22 271 4.8 14.5 0.00 0.00 0.00 52 1017.7
20260507072116 22 273 4.8 14.5 0.00 0.00 0.00 52 1017.7
20260507072003 22 270 4.8 14.5 0.00 0.00 0.00 52 1017.7
20260507071915 22 268 4.8 14.5 0.00 0.00 0.00 52 1017.7
20260507071803 22 265 4.8 14.5 0.00 0.00 0.00 52 1017.7
20260507071715 22 264 4.8 14.5 0.00 0.00 0.00 52 1017.7
20260507071604 22 268 4.8 14.5 0.00 0.00 0.00 51 1017.7
20260507071516 22 268 4.8 14.5 0.00 0.00 0.00 51 1017.6
20260507071403 22 267 4.8 14.5 0.00 0.00 0.00 50 1017.7
20260507071315 22 266 4.8 14.5 0.00 0.00 0.00 50 1017.6
20260507071203 22 263 4.8 9.7 0.00 0.00 0.00 50 1017.7
20260507071116 22 262 4.8 9.7 0.00 0.00 0.00 50 1017.7
20260507071004 22 269 6.4 9.7 0.00 0.00 0.00 50 1017.7
20260507070916 22 273 6.4 11.3 0.00 0.00 0.00 50 1017.7
20260507070804 22 276 6.4 11.3 0.00 0.00 0.00 50 1017.6
20260507070715 22 274 6.4 11.3 0.00 0.00 0.00 51 1017.6
20260507070603 22 272 6.4 14.5 0.00 0.00 0.00 50 1017.6
20260507070515 22 269 6.4 14.5 0.00 0.00 0.00 49 1017.6
20260507070403 22 269 6.4 14.5 0.00 0.00 0.00 49 1017.6
20260507070315 22 268 6.4 14.5 0.00 0.00 0.00 50 1017.6
20260507070203 22 270 6.4 14.5 0.00 0.00 0.00 50 1017.5
20260507070115 22 270 6.4 17.7 0.00 0.00 0.00 50 1017.6
20260507070005 22 271 6.4 17.7 0.00 0.00 0.00 50 1017.5
20260507065915 22 275 6.4 17.7 0.00 0.00 0.00 50 1017.5
20260507065803 22 281 6.4 20.9 0.00 0.00 0.00 50 1017.5
20260507065715 22 286 6.4 20.9 0.00 0.00 0.00 50 1017.5
20260507065603 22 290 6.4 20.9 0.00 0.00 0.00 49 1017.5
20260507065515 22 297 6.4 20.9 0.00 0.00 0.00 49 1017.4
20260507065404 22 302 6.4 20.9 0.00 0.00 0.00 48 1017.4
20260507065316 22 305 6.4 20.9 0.00 0.00 0.00 48 1017.4
20260507065203 22 308 6.4 20.9 0.00 0.00 0.00 48 1017.4
20260507065116 22 312 6.4 20.9 0.00 0.00 0.00 48 1017.4
20260507065003 22 309 6.4 20.9 0.00 0.00 0.00 48 1017.4
20260507064915 22 304 6.4 20.9 0.00 0.00 0.00 48 1017.4
20260507064803 22 299 6.4 14.5 0.00 0.00 0.00 49 1017.4
20260507064715 22 298 6.4 14.5 0.00 0.00 0.00 49 1017.4
20260507064603 22 295 6.4 17.7 0.00 0.00 0.00 48 1017.3
20260507064515 22 291 6.4 17.7 0.00 0.00 0.00 48 1017.4
20260507064403 22 288 6.4 17.7 0.00 0.00 0.00 48 1017.4
20260507064315 22 285 6.4 20.9 0.00 0.00 0.00 48 1017.4
20260507064203 22 283 6.4 20.9 0.00 0.00 0.00 49 1017.3
20260507064115 22 283 6.4 20.9 0.00 0.00 0.00 49 1017.3
20260507064003 22 282 6.4 20.9 0.00 0.00 0.00 49 1017.4
20260507063915 22 282 6.4 20.9 0.00 0.00 0.00 49 1017.3
20260507063803 22 282 6.4 20.9 0.00 0.00 0.00 48 1017.3
20260507063715 22 280 6.4 20.9 0.00 0.00 0.00 47 1017.3
20260507063603 23 279 6.4 20.9 0.00 0.00 0.00 46 1017.3
20260507063515 23 277 4.8 20.9 0.00 0.00 0.00 45 1017.3
20260507063403 23 274 4.8 20.9 0.00 0.00 0.00 43 1017.2
20260507063315 23 271 4.8 17.7 0.00 0.00 0.00 43 1017.2
20260507063203 23 269 4.8 9.7 0.00 0.00 0.00 41 1017.3
20260507063116 23 266 3.2 9.7 0.00 0.00 0.00 41 1017.2
20260507063003 23 263 3.2 9.7 0.00 0.00 0.00 41 1017.2
20260507062916 23 258 3.2 9.7 0.00 0.00 0.00 42 1017.2
20260507062804 23 248 3.2 9.7 0.00 0.00 0.00 42 1017.1
20260507062716 23 241 3.2 9.7 0.00 0.00 0.00 42 1017.1
20260507062603 23 230 3.2 9.7 0.00 0.00 0.00 42 1017.1
20260507062515 23 224 3.2 9.7 0.00 0.00 0.00 42 1017.1
20260507062403 24 215 1.6 9.7 0.00 0.00 0.00 41 1017.1
20260507062317 24 208 1.6 9.7 0.00 0.00 0.00 41 1017.1
20260507062203 24 183 1.6 9.7 0.00 0.00 0.00 39 1017.1
20260507062115 24 164 1.6 9.7 0.00 0.00 0.00 39 1017.0
20260507062003 24 151 1.6 9.7 0.00 0.00 0.00 39 1017.0
20260507061920 24 141 1.6 9.7 0.00 0.00 0.00 39 1017.0
20260507061803 24 115 1.6 9.7 0.00 0.00 0.00 38 1017.1
20260507061718 23 104 1.6 9.7 0.00 0.00 0.00 37 1017.0
20260507061604 23 102 1.6 9.7 0.00 0.00 0.00 37 1017.1
20260507061516 23 102 1.6 9.7 0.00 0.00 0.00 37 1017.1
20260507061403 23 102 1.6 9.7 0.00 0.00 0.00 37 1017.1
20260507061316 23 102 1.6 9.7 0.00 0.00 0.00 37 1017.1
20260507061203 23 101 1.6 9.7 0.00 0.00 0.00 36 1017.2
20260507061115 23 101 1.6 9.7 0.00 0.00 0.00 37 1017.2
20260507061003 23 100 1.6 9.7 0.00 0.00 0.00 37 1017.2
20260507060915 23 100 1.6 9.7 0.00 0.00 0.00 37 1017.2
20260507060803 23 100 1.6 9.7 0.00 0.00 0.00 38 1017.2
20260507060715 23 100 1.6 9.7 0.00 0.00 0.00 38 1017.1
20260507060603 22 99 1.6 9.7 0.00 0.00 0.00 38 1017.1
20260507060516 22 98 1.6 9.7 0.00 0.00 0.00 38 1017.1
20260507060403 22 97 1.6 9.7 0.00 0.00 0.00 39 1017.1
20260507060315 22 96 1.6 9.7 0.00 0.00 0.00 40 1017.1
20260507060204 22 96 1.6 9.7 0.00 0.00 0.00 41 1017.1
20260507060116 22 96 3.2 9.7 0.00 0.00 0.00 42 1017.1
20260507060003 22 95 3.2 9.7 0.00 0.00 0.00 42 1017.1
20260507055916 22 95 3.2 9.7 0.00 0.00 0.00 42 1017.1
20260507055803 22 94 3.2 9.7 0.00 0.00 0.00 41 1017.1
20260507055716 22 92 3.2 9.7 0.00 0.00 0.00 41 1017.2
20260507055603 22 90 3.2 9.7 0.00 0.00 0.00 41 1017.2
20260507055517 22 90 3.2 9.7 0.00 0.00 0.00 42 1017.2
20260507055403 21 89 4.8 9.7 0.00 0.00 0.00 42 1017.2
20260507055318 21 88 4.8 9.7 0.00 0.00 0.00 42 1017.2
20260507055203 21 87 4.8 11.3 0.00 0.00 0.00 42 1017.2
20260507055116 21 87 4.8 11.3 0.00 0.00 0.00 41 1017.2
20260507055003 21 87 4.8 11.3 0.00 0.00 0.00 42 1017.2
20260507054917 21 86 4.8 11.3 0.00 0.00 0.00 43 1017.2
20260507054804 21 86 4.8 11.3 0.00 0.00 0.00 44 1017.2
20260507054717 21 85 4.8 11.3 0.00 0.00 0.00 46 1017.1
20260507054604 21 84 6.4 11.3 0.00 0.00 0.00 46 1017.2
20260507054517 21 83 6.4 11.3 0.00 0.00 0.00 46 1017.2
20260507054403 21 83 6.4 11.3 0.00 0.00 0.00 46 1017.2
20260507054317 21 83 6.4 11.3 0.00 0.00 0.00 46 1017.2
20260507054204 20 82 6.4 9.7 0.00 0.00 0.00 47 1017.2
20260507054117 20 82 6.4 9.7 0.00 0.00 0.00 47 1017.2
20260507054003 20 82 6.4 9.7 0.00 0.00 0.00 48 1017.3
20260507053918 20 82 6.4 9.7 0.00 0.00 0.00 48 1017.3
20260507053804 20 82 8.0 14.5 0.00 0.00 0.00 49 1017.3
20260507053716 20 82 8.0 14.5 0.00 0.00 0.00 49 1017.3
20260507053603 20 81 8.0 17.7 0.00 0.00 0.00 50 1017.3
20260507053517 20 81 8.0 17.7 0.00 0.00 0.00 51 1017.3
20260507053404 20 81 8.0 17.7 0.00 0.00 0.00 50 1017.3
20260507053317 20 81 8.0 17.7 0.00 0.00 0.00 50 1017.4
20260507053204 20 81 8.0 17.7 0.00 0.00 0.00 51 1017.3
20260507053117 20 80 9.7 17.7 0.00 0.00 0.00 51 1017.3
20260507053003 20 79 9.7 20.9 0.00 0.00 0.00 51 1017.3
20260507052916 20 79 9.7 20.9 0.00 0.00 0.00 52 1017.3
20260507052803 19 79 9.7 20.9 0.00 0.00 0.00 52 1017.3
20260507052716 19 78 9.7 20.9 0.00 0.00 0.00 52 1017.4
20260507052603 19 79 9.7 20.9 0.00 0.00 0.00 53 1017.3
20260507052517 19 79 9.7 20.9 0.00 0.00 0.00 53 1017.4
20260507052404 19 79 8.0 20.9 0.00 0.00 0.00 54 1017.3
20260507052318 19 79 8.0 20.9 0.00 0.00 0.00 54 1017.3
20260507052203 19 79 8.0 20.9 0.00 0.00 0.00 54 1017.3
20260507052117 19 79 8.0 20.9 0.00 0.00 0.00 55 1017.4
20260507052004 18 79 8.0 20.9 0.00 0.00 0.00 55 1017.3
20260507051917 18 79 8.0 17.7 0.00 0.00 0.00 56 1017.4
20260507051803 18 79 8.0 17.7 0.00 0.00 0.00 56 1017.3
20260507051717 18 79 6.4 17.7 0.00 0.00 0.00 56 1017.3
20260507051603 18 78 6.4 17.7 0.00 0.00 0.00 57 1017.4
20260507051517 18 77 6.4 17.7 0.00 0.00 0.00 58 1017.3
20260507051403 18 77 6.4 14.5 0.00 0.00 0.00 58 1017.3
20260507051316 18 77 6.4 14.5 0.00 0.00 0.00 58 1017.3
20260507051203 18 76 6.4 14.5 0.00 0.00 0.00 58 1017.3
20260507051116 18 76 6.4 17.7 0.00 0.00 0.00 58 1017.3
20260507051003 18 76 6.4 17.7 0.00 0.00 0.00 59 1017.3
20260507050917 18 76 6.4 17.7 0.00 0.00 0.00 59 1017.3
20260507050803 17 75 6.4 17.7 0.00 0.00 0.00 59 1017.2
20260507050717 17 75 6.4 17.7 0.00 0.00 0.00 59 1017.2
20260507050603 17 74 8.0 17.7 0.00 0.00 0.00 60 1017.2
20260507050516 17 73 8.0 17.7 0.00 0.00 0.00 60 1017.2
20260507050403 17 72 8.0 17.7 0.00 0.00 0.00 60 1017.2
20260507050316 17 73 8.0 17.7 0.00 0.00 0.00 60 1017.2
20260507050203 17 73 8.0 17.7 0.00 0.00 0.00 60 1017.3
20260507050116 17 72 8.0 17.7 0.00 0.00 0.00 60 1017.3
20260507050004 17 72 8.0 17.7 0.00 0.00 0.00 60 1017.3
20260507045916 17 72 9.7 17.7 0.00 0.00 0.00 60 1017.3
20260507045804 17 73 9.7 20.9 0.00 0.00 0.00 60 1017.4
20260507045716 17 74 9.7 20.9 0.00 0.00 0.00 61 1017.4
20260507045604 17 75 9.7 20.9 0.00 0.00 0.00 61 1017.4
20260507045516 17 76 9.7 20.9 0.00 0.00 0.00 61 1017.4
20260507045403 17 76 8.0 20.9 0.00 0.00 0.00 61 1017.4
20260507045317 17 76 8.0 20.9 0.00 0.00 0.00 61 1017.3
20260507045204 17 77 8.0 20.9 0.00 0.00 0.00 62 1017.2
20260507045116 17 77 8.0 20.9 0.00 0.00 0.00 62 1017.2
20260507045003 17 78 8.0 20.9 0.00 0.00 0.00 62 1017.2
20260507044915 17 78 8.0 20.9 0.00 0.00 0.00 62 1017.1
20260507044803 17 78 8.0 20.9 0.00 0.00 0.00 63 1017.1
20260507044716 17 79 8.0 20.9 0.00 0.00 0.00 63 1017.1
20260507044603 17 79 8.0 17.7 0.00 0.00 0.00 63 1017.1
20260507044515 17 79 8.0 17.7 0.00 0.00 0.00 63 1017.1
20260507044403 17 78 8.0 17.7 0.00 0.00 0.00 63 1017.1
20260507044316 17 78 8.0 17.7 0.00 0.00 0.00 63 1017.1
20260507044204 17 79 8.0 17.7 0.00 0.00 0.00 63 1017.0
20260507044116 17 78 9.7 17.7 0.00 0.00 0.00 63 1017.1
20260507044004 17 79 9.7 17.7 0.00 0.00 0.00 63 1017.1
20260507043915 17 79 9.7 20.9 0.00 0.00 0.00 63 1017.0
20260507043803 17 79 9.7 20.9 0.00 0.00 0.00 63 1017.1
20260507043715 17 79 9.7 20.9 0.00 0.00 0.00 63 1017.1
20260507043604 17 79 9.7 20.9 0.00 0.00 0.00 63 1017.1
20260507043516 17 79 9.7 20.9 0.00 0.00 0.00 63 1017.1
20260507043404 17 80 11.3 20.9 0.00 0.00 0.00 63 1017.1
20260507043315 17 80 11.3 20.9 0.00 0.00 0.00 63 1017.1
20260507043203 17 80 11.3 20.9 0.00 0.00 0.00 63 1017.1
20260507043115 17 80 11.3 20.9 0.00 0.00 0.00 63 1017.1
20260507043003 17 80 11.3 20.9 0.00 0.00 0.00 63 1017.1
20260507042915 17 80 11.3 20.9 0.00 0.00 0.00 63 1017.1
20260507042803 17 80 11.3 20.9 0.00 0.00 0.00 63 1017.2
20260507042715 17 80 11.3 20.9 0.00 0.00 0.00 63 1017.1
20260507042603 17 80 11.3 20.9 0.00 0.00 0.00 63 1017.1
20260507042515 17 80 9.7 20.9 0.00 0.00 0.00 63 1017.2
20260507042403 17 80 9.7 20.9 0.00 0.00 0.00 63 1017.1
20260507042316 17 80 9.7 20.9 0.00 0.00 0.00 63 1017.2
20260507042203 17 80 9.7 20.9 0.00 0.00 0.00 64 1017.1
20260507042115 17 80 9.7 20.9 0.00 0.00 0.00 64 1017.1
20260507042004 17 80 9.7 20.9 0.00 0.00 0.00 64 1017.1
20260507041916 17 81 9.7 20.9 0.00 0.00 0.00 64 1017.1
20260507041804 17 81 9.7 20.9 0.00 0.00 0.00 64 1017.0
20260507041715 17 82 9.7 20.9 0.00 0.00 0.00 64 1017.0
20260507041603 17 82 9.7 20.9 0.00 0.00 0.00 64 1017.0
20260507041515 17 82 9.7 20.9 0.00 0.00 0.00 64 1016.9
20260507041404 17 82 9.7 20.9 0.00 0.00 0.00 64 1017.0
20260507041316 17 82 9.7 20.9 0.00 0.00 0.00 65 1016.9
20260507041203 16 82 9.7 24.1 0.00 0.00 0.00 65 1017.0
20260507041115 16 82 9.7 24.1 0.00 0.00 0.00 65 1016.9
20260507041003 16 83 9.7 24.1 0.00 0.00 0.00 65 1017.0
20260507040915 16 82 9.7 24.1 0.00 0.00 0.00 65 1017.0
20260507040804 16 82 9.7 24.1 0.00 0.00 0.00 65 1017.0
20260507040716 16 82 9.7 24.1 0.00 0.00 0.00 65 1017.0
20260507040604 16 81 9.7 24.1 0.00 0.00 0.00 66 1017.0
20260507040516 16 82 9.7 24.1 0.00 0.00 0.00 66 1017.0
20260507040403 16 81 9.7 24.1 0.00 0.00 0.00 66 1017.0
20260507040316 16 81 9.7 24.1 0.00 0.00 0.00 66 1017.0
20260507040204 16 82 9.7 24.1 0.00 0.00 0.00 66 1017.0
20260507040116 16 82 9.7 20.9 0.00 0.00 0.00 66 1017.1
20260507040004 16 82 9.7 20.9 0.00 0.00 0.00 67 1017.1
20260507035915 16 82 9.7 20.9 0.00 0.00 0.00 67 1017.1
20260507035803 16 82 9.7 20.9 0.00 0.00 0.00 67 1017.1
20260507035716 16 82 9.7 20.9 0.00 0.00 0.00 67 1017.1